Time,TemperatureF,DewpointF,PressureIn,WindDirection,WindDirectionDegrees,WindSpeedMPH,WindSpeedGustMPH,Humidity,HourlyPrecipIn,Conditions,Clouds,dailyrainin,SoftwareType,DateUTC
2013-12-25 00:02:00,30.6,26.9,30.21,West,270,0.7,3.9,86,0.00,,,0.00,WUHU216HW,2013-12-25 06:02:00,
2013-12-25 00:03:00,30.6,26.9,30.21,NW,315,0.0,3.9,86,0.00,,,0.00,WUHU216HW,2013-12-25 06:03:00,
2013-12-25 00:04:00,30.6,26.9,30.21,West,270,0.0,3.9,86,0.00,,,0.00,WUHU216HW,2013-12-25 06:04:00,
2013-12-25 00:05:00,30.6,26.9,30.21,SW,225,0.0,3.9,86,0.00,,,0.00,WUHU216HW,2013-12-25 06:05:00,
2013-12-25 00:07:00,30.4,26.7,30.21,WSW,248,0.9,3.9,86,0.00,,,0.00,WUHU216HW,2013-12-25 06:07:00,
2013-12-25 00:08:00,30.2,26.6,30.21,WNW,293,0.2,3.9,86,0.00,,,0.00,WUHU216HW,2013-12-25 06:08:00,
2013-12-25 00:09:00,30.2,26.6,30.21,SSW,203,0.0,2.8,86,0.00,,,0.00,WUHU216HW,2013-12-25 06:09:00,
2013-12-25 00:11:00,30.2,26.6,30.21,WSW,248,0.0,2.8,86,0.00,,,0.00,WUHU216HW,2013-12-25 06:11:00,
2013-12-25 00:12:00,30.2,26.6,30.21,WNW,293,0.0,2.0,86,0.00,,,0.00,WUHU216HW,2013-12-25 06:12:00,
2013-12-25 00:13:00,30.2,26.6,30.21,South,180,0.0,2.0,86,0.00,,,0.00,WUHU216HW,2013-12-25 06:13:00,
2013-12-25 00:14:00,30.2,26.8,30.21,WSW,248,0.0,2.0,87,0.00,,,0.00,WUHU216HW,2013-12-25 06:14:00,
2013-12-25 00:15:00,30.2,26.6,30.21,SW,225,0.0,2.0,86,0.00,,,0.00,WUHU216HW,2013-12-25 06:15:00,
2013-12-25 00:16:00,30.1,26.6,30.21,WNW,293,0.9,2.0,87,0.00,,,0.00,WUHU216HW,2013-12-25 06:16:00,
2013-12-25 00:17:00,30.1,26.6,30.21,West,270,0.0,2.0,87,0.00,,,0.00,WUHU216HW,2013-12-25 06:17:00,
2013-12-25 00:18:00,30.1,26.6,30.21,SW,225,0.0,1.1,87,0.00,,,0.00,WUHU216HW,2013-12-25 06:18:00,
2013-12-25 00:19:00,30.1,26.6,30.21,WSW,248,0.0,1.1,87,0.00,,,0.00,WUHU216HW,2013-12-25 06:19:00,
2013-12-25 00:20:00,30.1,26.6,30.21,SW,225,0.0,1.1,87,0.00,,,0.00,WUHU216HW,2013-12-25 06:20:00,
2013-12-25 00:22:00,30.1,26.6,30.21,WNW,293,0.0,1.1,87,0.00,,,0.00,WUHU216HW,2013-12-25 06:22:00,
2013-12-25 00:23:00,30.1,26.4,30.21,West,270,0.0,1.1,86,0.00,,,0.00,WUHU216HW,2013-12-25 06:23:00,
2013-12-25 00:24:00,30.1,26.4,30.22,WNW,293,0.0,1.1,86,0.00,,,0.00,WUHU216HW,2013-12-25 06:24:00,
2013-12-25 00:25:00,30.1,26.4,30.22,WNW,293,0.0,1.1,86,0.00,,,0.00,WUHU216HW,2013-12-25 06:25:00,
2013-12-25 00:27:00,30.1,26.4,30.22,WNW,293,0.0,0.0,86,0.00,,,0.00,WUHU216HW,2013-12-25 06:27:00,
2013-12-25 00:28:00,30.1,26.4,30.22,West,270,0.0,0.5,86,0.00,,,0.00,WUHU216HW,2013-12-25 06:28:00,
2013-12-25 00:29:00,30.1,26.4,30.22,West,270,0.0,0.5,86,0.00,,,0.00,WUHU216HW,2013-12-25 06:29:00,
2013-12-25 00:30:00,30.1,26.4,30.22,West,270,0.9,1.1,86,0.00,,,0.00,WUHU216HW,2013-12-25 06:30:00,
2013-12-25 00:32:00,30.1,26.4,30.22,ENE,68,0.2,1.1,86,0.00,,,0.00,WUHU216HW,2013-12-25 06:32:00,
2013-12-25 00:33:00,30.1,26.4,30.22,SW,225,1.8,2.3,86,0.00,,,0.00,WUHU216HW,2013-12-25 06:33:00,
2013-12-25 00:34:00,30.1,26.4,30.22,NNW,338,0.2,2.3,86,0.00,,,0.00,WUHU216HW,2013-12-25 06:34:00,
2013-12-25 00:36:00,30.1,26.4,30.22,SSW,203,0.0,2.3,86,0.00,,,0.00,WUHU216HW,2013-12-25 06:36:00,
2013-12-25 00:37:00,30.2,26.6,30.22,SW,225,0.4,2.3,86,0.00,,,0.00,WUHU216HW,2013-12-25 06:37:00,
2013-12-25 00:38:00,30.2,26.6,30.22,NNE,23,0.0,2.3,86,0.00,,,0.00,WUHU216HW,2013-12-25 06:38:00,
2013-12-25 00:39:00,30.1,26.4,30.22,WNW,293,0.4,2.3,86,0.00,,,0.00,WUHU216HW,2013-12-25 06:39:00,
2013-12-25 00:40:00,30.1,26.4,30.22,SW,225,1.1,2.3,86,0.00,,,0.00,WUHU216HW,2013-12-25 06:40:00,
2013-12-25 00:42:00,30.1,26.4,30.22,West,270,0.0,2.8,86,0.00,,,0.00,WUHU216HW,2013-12-25 06:42:00,
2013-12-25 00:43:00,30.1,26.4,30.23,WNW,293,0.0,2.8,86,0.00,,,0.00,WUHU216HW,2013-12-25 06:43:00,
2013-12-25 00:45:00,30.1,26.4,30.22,SSW,203,1.3,7.9,86,0.00,,,0.00,WUHU216HW,2013-12-25 06:45:00,
2013-12-25 00:46:00,30.1,26.4,30.22,SSW,203,1.6,7.9,86,0.00,,,0.00,WUHU216HW,2013-12-25 06:46:00,
2013-12-25 00:47:00,30.1,26.4,30.22,SW,225,0.9,7.9,86,0.00,,,0.00,WUHU216HW,2013-12-25 06:47:00,
2013-12-25 00:48:00,30.1,26.4,30.23,SSW,203,0.0,7.9,86,0.00,,,0.00,WUHU216HW,2013-12-25 06:48:00,
2013-12-25 00:50:00,30.1,26.4,30.23,WNW,293,0.0,7.9,86,0.00,,,0.00,WUHU216HW,2013-12-25 06:50:00,
2013-12-25 00:51:00,30.1,26.4,30.23,East,90,0.0,7.9,86,0.00,,,0.00,WUHU216HW,2013-12-25 06:51:00,
2013-12-25 00:52:00,30.1,26.6,30.23,NW,315,0.0,7.9,87,0.00,,,0.00,WUHU216HW,2013-12-25 06:52:00,
2013-12-25 00:54:00,30.2,26.8,30.23,SSW,203,1.8,7.9,87,0.00,,,0.00,WUHU216HW,2013-12-25 06:54:00,
2013-12-25 00:55:00,30.2,26.8,30.23,SW,225,0.2,3.1,87,0.00,,,0.00,WUHU216HW,2013-12-25 06:55:00,
2013-12-25 00:56:00,30.2,27.2,30.23,West,270,2.5,3.1,88,0.00,,,0.00,WUHU216HW,2013-12-25 06:56:00,
2013-12-25 00:57:00,30.2,27.2,30.22,SSW,203,0.0,3.1,88,0.00,,,0.00,WUHU216HW,2013-12-25 06:57:00,
2013-12-25 00:58:00,30.2,27.2,30.22,SW,225,0.0,3.1,88,0.00,,,0.00,WUHU216HW,2013-12-25 06:58:00,
2013-12-25 00:59:00,30.2,27.2,30.22,South,180,0.0,3.1,88,0.00,,,0.00,WUHU216HW,2013-12-25 06:59:00,
2013-12-25 01:00:00,30.2,27.2,30.22,North,0,1.1,3.1,88,0.00,,,0.00,WUHU216HW,2013-12-25 07:00:00,
2013-12-25 01:01:00,30.2,27.2,30.22,North,0,1.1,3.1,88,0.00,,,0.00,WUHU216HW,2013-12-25 07:01:00,
2013-12-25 01:02:00,30.4,27.4,30.22,West,270,0.0,3.1,88,0.00,,,0.00,WUHU216HW,2013-12-25 07:02:00,
2013-12-25 01:03:00,30.4,27.4,30.22,NW,315,0.0,3.1,88,0.00,,,0.00,WUHU216HW,2013-12-25 07:03:00,
2013-12-25 01:04:00,30.4,27.4,30.22,SW,225,0.0,3.1,88,0.00,,,0.00,WUHU216HW,2013-12-25 07:04:00,
2013-12-25 01:06:00,30.4,27.4,30.22,WSW,248,0.4,3.1,88,0.00,,,0.00,WUHU216HW,2013-12-25 07:06:00,
2013-12-25 01:07:00,30.4,27.4,30.22,NNW,338,1.8,3.1,88,0.00,,,0.00,WUHU216HW,2013-12-25 07:07:00,
2013-12-25 01:09:00,30.6,27.6,30.22,WSW,248,0.0,3.1,88,0.00,,,0.00,WUHU216HW,2013-12-25 07:09:00,
2013-12-25 01:10:00,30.4,27.4,30.22,NNW,338,1.6,3.1,88,0.00,,,0.00,WUHU216HW,2013-12-25 07:10:00,
2013-12-25 01:11:00,30.4,27.4,30.22,WSW,248,1.8,3.1,88,0.00,,,0.00,WUHU216HW,2013-12-25 07:11:00,
2013-12-25 01:12:00,30.4,27.4,30.21,NW,315,0.0,3.1,88,0.00,,,0.00,WUHU216HW,2013-12-25 07:12:00,
2013-12-25 01:13:00,30.4,27.4,30.21,NNW,338,2.5,3.1,88,0.00,,,0.00,WUHU216HW,2013-12-25 07:13:00,
2013-12-25 01:16:00,30.4,27.4,30.21,NW,315,0.9,3.1,88,0.00,,,0.00,WUHU216HW,2013-12-25 07:16:00,
2013-12-25 01:17:00,30.6,27.6,30.21,WSW,248,0.0,3.1,88,0.00,,,0.00,WUHU216HW,2013-12-25 07:17:00,
2013-12-25 01:18:00,30.4,27.4,30.21,WSW,248,1.8,3.1,88,0.00,,,0.00,WUHU216HW,2013-12-25 07:18:00,
2013-12-25 01:20:00,30.4,27.4,30.21,SSW,203,0.0,3.1,88,0.00,,,0.00,WUHU216HW,2013-12-25 07:20:00,
2013-12-25 01:21:00,30.4,27.4,30.21,WNW,293,0.0,3.1,88,0.00,,,0.00,WUHU216HW,2013-12-25 07:21:00,
2013-12-25 01:22:00,30.4,27.4,30.21,SSE,158,0.0,6.1,88,0.00,,,0.00,WUHU216HW,2013-12-25 07:22:00,
2013-12-25 01:23:00,30.4,27.4,30.21,SW,225,1.1,6.1,88,0.00,,,0.00,WUHU216HW,2013-12-25 07:23:00,
2013-12-25 01:25:00,30.4,27.4,30.21,SSW,203,0.0,6.1,88,0.00,,,0.00,WUHU216HW,2013-12-25 07:25:00,
2013-12-25 01:26:00,30.4,27.4,30.21,NNW,338,0.0,6.1,88,0.00,,,0.00,WUHU216HW,2013-12-25 07:26:00,
2013-12-25 01:27:00,30.6,27.6,30.21,WSW,248,0.0,6.1,88,0.00,,,0.00,WUHU216HW,2013-12-25 07:27:00,
2013-12-25 01:28:00,30.4,27.4,30.21,NNW,338,0.0,6.1,88,0.00,,,0.00,WUHU216HW,2013-12-25 07:28:00,
2013-12-25 01:30:00,30.6,27.6,30.22,SW,225,0.0,6.1,88,0.00,,,0.00,WUHU216HW,2013-12-25 07:30:00,
2013-12-25 01:31:00,30.6,27.6,30.22,West,270,0.4,3.1,88,0.00,,,0.00,WUHU216HW,2013-12-25 07:31:00,
2013-12-25 01:32:00,30.6,27.6,30.22,SE,135,0.0,3.1,88,0.00,,,0.00,WUHU216HW,2013-12-25 07:32:00,
2013-12-25 01:33:00,30.6,27.6,30.22,WNW,293,0.0,3.1,88,0.00,,,0.00,WUHU216HW,2013-12-25 07:33:00,
2013-12-25 01:35:00,30.6,27.6,30.22,WNW,293,0.0,2.3,88,0.00,,,0.00,WUHU216HW,2013-12-25 07:35:00,
2013-12-25 01:36:00,30.6,27.6,30.23,WSW,248,1.1,2.3,88,0.00,,,0.00,WUHU216HW,2013-12-25 07:36:00,
2013-12-25 01:37:00,30.6,27.6,30.23,West,270,0.0,2.3,88,0.00,,,0.00,WUHU216HW,2013-12-25 07:37:00,
2013-12-25 01:38:00,30.6,27.6,30.23,West,270,1.1,2.3,88,0.00,,,0.00,WUHU216HW,2013-12-25 07:38:00,
2013-12-25 01:40:00,30.6,27.6,30.23,WNW,293,2.7,3.4,88,0.00,,,0.00,WUHU216HW,2013-12-25 07:40:00,
2013-12-25 01:42:00,30.6,27.6,30.22,WSW,248,0.0,3.4,88,0.00,,,0.00,WUHU216HW,2013-12-25 07:42:00,
2013-12-25 01:43:00,30.6,27.6,30.22,NW,315,0.0,3.4,88,0.00,,,0.00,WUHU216HW,2013-12-25 07:43:00,
2013-12-25 01:45:00,30.6,27.6,30.22,WSW,248,0.0,3.4,88,0.00,,,0.00,WUHU216HW,2013-12-25 07:45:00,
2013-12-25 01:47:00,30.6,27.6,30.21,WNW,293,0.0,3.4,88,0.00,,,0.00,WUHU216HW,2013-12-25 07:47:00,
2013-12-25 01:48:00,30.6,27.6,30.21,West,270,0.0,3.4,88,0.00,,,0.00,WUHU216HW,2013-12-25 07:48:00,
2013-12-25 01:50:00,30.6,27.6,30.22,SW,225,0.0,3.4,88,0.00,,,0.00,WUHU216HW,2013-12-25 07:50:00,
2013-12-25 01:52:00,30.6,27.6,30.22,WSW,248,0.4,1.4,88,0.00,,,0.00,WUHU216HW,2013-12-25 07:52:00,
2013-12-25 01:53:00,30.6,27.6,30.22,SW,225,0.0,1.4,88,0.00,,,0.00,WUHU216HW,2013-12-25 07:53:00,
2013-12-25 01:55:00,30.6,27.6,30.23,West,270,1.6,2.0,88,0.00,,,0.00,WUHU216HW,2013-12-25 07:55:00,
2013-12-25 01:57:00,30.6,27.6,30.23,NW,315,0.0,2.0,88,0.00,,,0.00,WUHU216HW,2013-12-25 07:57:00,
2013-12-25 01:58:00,30.6,27.6,30.23,SSW,203,0.0,2.0,88,0.00,,,0.00,WUHU216HW,2013-12-25 07:58:00,
2013-12-25 01:59:00,30.6,27.6,30.23,North,0,0.0,2.0,88,0.00,,,0.00,WUHU216HW,2013-12-25 07:59:00,
2013-12-25 02:00:00,30.6,27.6,30.22,NW,315,0.0,2.0,88,0.00,,,0.00,WUHU216HW,2013-12-25 08:00:00,
2013-12-25 02:03:00,30.6,27.6,30.23,West,270,0.0,2.8,88,0.00,,,0.00,WUHU216HW,2013-12-25 08:03:00,
2013-12-25 02:04:00,30.6,27.6,30.23,WSW,248,0.0,2.8,88,0.00,,,0.00,WUHU216HW,2013-12-25 08:04:00,
2013-12-25 02:05:00,30.6,27.6,30.23,WNW,293,0.9,2.8,88,0.00,,,0.00,WUHU216HW,2013-12-25 08:05:00,
2013-12-25 02:08:00,30.6,27.6,30.22,WSW,248,0.0,2.8,88,0.00,,,0.00,WUHU216HW,2013-12-25 08:08:00,
2013-12-25 02:09:00,30.6,27.6,30.23,SE,135,0.0,2.8,88,0.00,,,0.00,WUHU216HW,2013-12-25 08:09:00,
2013-12-25 02:11:00,30.6,27.6,30.23,SSW,203,0.0,2.8,88,0.00,,,0.00,WUHU216HW,2013-12-25 08:11:00,
2013-12-25 02:13:00,30.6,27.6,30.23,WSW,248,0.0,2.8,88,0.00,,,0.00,WUHU216HW,2013-12-25 08:13:00,
2013-12-25 02:14:00,30.6,27.6,30.22,NNW,338,0.0,2.8,88,0.00,,,0.00,WUHU216HW,2013-12-25 08:14:00,
2013-12-25 02:16:00,30.6,27.6,30.22,SE,135,0.0,2.8,88,0.00,,,0.00,WUHU216HW,2013-12-25 08:16:00,
2013-12-25 02:18:00,30.6,27.6,30.22,WSW,248,0.0,0.5,88,0.00,,,0.00,WUHU216HW,2013-12-25 08:18:00,
2013-12-25 02:19:00,30.6,27.6,30.22,NW,315,0.0,1.4,88,0.00,,,0.00,WUHU216HW,2013-12-25 08:19:00,
2013-12-25 02:20:00,30.6,27.6,30.22,WNW,293,1.1,1.4,88,0.00,,,0.00,WUHU216HW,2013-12-25 08:20:00,
2013-12-25 02:22:00,30.6,27.6,30.23,West,270,1.1,1.4,88,0.00,,,0.00,WUHU216HW,2013-12-25 08:22:00,
2013-12-25 02:23:00,30.6,27.6,30.23,NNW,338,2.5,3.1,88,0.00,,,0.00,WUHU216HW,2013-12-25 08:23:00,
2013-12-25 02:24:00,30.6,27.6,30.23,WNW,293,0.7,3.1,88,0.00,,,0.00,WUHU216HW,2013-12-25 08:24:00,
2013-12-25 02:25:00,30.6,27.6,30.23,WNW,293,0.0,3.1,88,0.00,,,0.00,WUHU216HW,2013-12-25 08:25:00,
2013-12-25 02:27:00,30.6,27.6,30.23,NW,315,0.0,3.1,88,0.00,,,0.00,WUHU216HW,2013-12-25 08:27:00,
2013-12-25 02:29:00,30.6,27.6,30.23,SSW,203,0.0,3.1,88,0.00,,,0.00,WUHU216HW,2013-12-25 08:29:00,
2013-12-25 02:30:00,30.6,27.6,30.23,SW,225,0.0,3.1,88,0.00,,,0.00,WUHU216HW,2013-12-25 08:30:00,
2013-12-25 02:32:00,30.6,27.6,30.23,WSW,248,2.5,3.1,88,0.00,,,0.00,WUHU216HW,2013-12-25 08:32:00,
2013-12-25 02:34:00,30.6,27.6,30.22,NW,315,0.4,3.1,88,0.00,,,0.00,WUHU216HW,2013-12-25 08:34:00,
2013-12-25 02:35:00,30.6,27.6,30.22,WNW,293,0.0,3.1,88,0.00,,,0.00,WUHU216HW,2013-12-25 08:35:00,
2013-12-25 02:37:00,30.6,27.6,30.23,NW,315,0.0,3.1,88,0.00,,,0.00,WUHU216HW,2013-12-25 08:37:00,
2013-12-25 02:39:00,30.6,27.6,30.23,SSW,203,0.0,3.1,88,0.00,,,0.00,WUHU216HW,2013-12-25 08:39:00,
2013-12-25 02:40:00,30.6,27.6,30.23,WSW,248,0.0,3.1,88,0.00,,,0.00,WUHU216HW,2013-12-25 08:40:00,
2013-12-25 02:41:00,30.6,27.6,30.23,NW,315,0.0,3.1,88,0.00,,,0.00,WUHU216HW,2013-12-25 08:41:00,
2013-12-25 02:42:00,30.6,27.6,30.23,NW,315,0.0,3.1,88,0.00,,,0.00,WUHU216HW,2013-12-25 08:42:00,
2013-12-25 02:44:00,30.6,27.6,30.23,WNW,293,0.0,2.0,88,0.00,,,0.00,WUHU216HW,2013-12-25 08:44:00,
2013-12-25 02:45:00,30.6,27.6,30.23,WNW,293,0.0,0.0,88,0.00,,,0.00,WUHU216HW,2013-12-25 08:45:00,
2013-12-25 02:46:00,30.6,27.6,30.23,SSE,158,0.0,0.0,88,0.00,,,0.00,WUHU216HW,2013-12-25 08:46:00,
2013-12-25 02:47:00,30.6,27.6,30.23,WSW,248,0.0,0.0,88,0.00,,,0.00,WUHU216HW,2013-12-25 08:47:00,
2013-12-25 02:50:00,30.6,27.6,30.23,WSW,248,0.0,0.5,88,0.00,,,0.00,WUHU216HW,2013-12-25 08:50:00,
2013-12-25 02:51:00,30.6,27.6,30.23,WSW,248,0.0,0.5,88,0.00,,,0.00,WUHU216HW,2013-12-25 08:51:00,
2013-12-25 02:52:00,30.6,27.6,30.23,WSW,248,0.0,0.5,88,0.00,,,0.00,WUHU216HW,2013-12-25 08:52:00,
2013-12-25 02:55:00,30.6,27.6,30.24,WNW,293,0.0,2.0,88,0.00,,,0.00,WUHU216HW,2013-12-25 08:55:00,
2013-12-25 02:56:00,30.6,27.6,30.24,WNW,293,0.4,2.0,88,0.00,,,0.00,WUHU216HW,2013-12-25 08:56:00,
2013-12-25 02:57:00,30.6,27.6,30.24,WSW,248,0.0,3.1,88,0.00,,,0.00,WUHU216HW,2013-12-25 08:57:00,
2013-12-25 03:00:00,30.6,27.8,30.24,WNW,293,0.2,3.1,89,0.00,,,0.00,WUHU216HW,2013-12-25 09:00:00,
2013-12-25 03:01:00,30.6,27.8,30.24,WNW,293,0.0,3.1,89,0.00,,,0.00,WUHU216HW,2013-12-25 09:01:00,
2013-12-25 03:02:00,30.6,27.6,30.24,NW,315,0.0,3.1,88,0.00,,,0.00,WUHU216HW,2013-12-25 09:02:00,
2013-12-25 03:03:00,30.6,27.8,30.24,SW,225,1.1,3.1,89,0.00,,,0.00,WUHU216HW,2013-12-25 09:03:00,
2013-12-25 03:06:00,30.6,27.8,30.24,WNW,293,0.4,3.1,89,0.00,,,0.00,WUHU216HW,2013-12-25 09:06:00,
2013-12-25 03:07:00,30.6,27.8,30.24,West,270,0.9,3.1,89,0.00,,,0.00,WUHU216HW,2013-12-25 09:07:00,
2013-12-25 03:08:00,30.6,27.8,30.24,WNW,293,2.5,3.1,89,0.00,,,0.00,WUHU216HW,2013-12-25 09:08:00,
2013-12-25 03:11:00,30.6,27.8,30.24,ESE,113,0.0,3.1,89,0.00,,,0.00,WUHU216HW,2013-12-25 09:11:00,
2013-12-25 03:12:00,30.6,27.8,30.24,NW,315,1.8,3.1,89,0.00,,,0.00,WUHU216HW,2013-12-25 09:12:00,
2013-12-25 03:13:00,30.6,27.8,30.24,South,180,0.2,3.1,89,0.00,,,0.00,WUHU216HW,2013-12-25 09:13:00,
2013-12-25 03:16:00,30.6,27.8,30.24,WNW,293,1.1,4.3,89,0.00,,,0.00,WUHU216HW,2013-12-25 09:16:00,
2013-12-25 03:17:00,30.6,27.8,30.24,WNW,293,0.4,4.3,89,0.00,,,0.00,WUHU216HW,2013-12-25 09:17:00,
2013-12-25 03:18:00,30.6,27.8,30.24,South,180,0.0,4.3,89,0.00,,,0.00,WUHU216HW,2013-12-25 09:18:00,
2013-12-25 03:21:00,30.8,28.0,30.24,WSW,248,0.0,4.3,89,0.00,,,0.00,WUHU216HW,2013-12-25 09:21:00,
2013-12-25 03:22:00,30.6,27.8,30.24,West,270,0.4,4.3,89,0.00,,,0.00,WUHU216HW,2013-12-25 09:22:00,
2013-12-25 03:23:00,30.8,28.0,30.24,NW,315,0.0,4.3,89,0.00,,,0.00,WUHU216HW,2013-12-25 09:23:00,
2013-12-25 03:26:00,30.8,28.0,30.24,WSW,248,2.5,5.4,89,0.00,,,0.00,WUHU216HW,2013-12-25 09:26:00,
2013-12-25 03:27:00,30.6,27.8,30.24,WNW,293,2.5,5.4,89,0.00,,,0.00,WUHU216HW,2013-12-25 09:27:00,
2013-12-25 03:28:00,30.6,27.8,30.24,NNE,23,0.7,5.4,89,0.00,,,0.00,WUHU216HW,2013-12-25 09:28:00,
2013-12-25 03:29:00,30.8,28.0,30.24,NW,315,0.0,5.4,89,0.00,,,0.00,WUHU216HW,2013-12-25 09:29:00,
2013-12-25 03:31:00,30.8,28.0,30.24,West,270,0.2,5.4,89,0.00,,,0.00,WUHU216HW,2013-12-25 09:31:00,
2013-12-25 03:32:00,30.8,28.0,30.24,WNW,293,2.2,5.4,89,0.00,,,0.00,WUHU216HW,2013-12-25 09:32:00,
2013-12-25 03:33:00,30.8,28.0,30.24,WNW,293,1.1,5.4,89,0.00,,,0.00,WUHU216HW,2013-12-25 09:33:00,
2013-12-25 03:34:00,30.6,27.8,30.24,WNW,293,1.8,5.4,89,0.00,,,0.00,WUHU216HW,2013-12-25 09:34:00,
2013-12-25 03:35:00,30.8,28.0,30.24,NW,315,2.0,5.4,89,0.00,,,0.00,WUHU216HW,2013-12-25 09:35:00,
2013-12-25 03:36:00,30.8,28.0,30.23,East,90,0.0,4.8,89,0.00,,,0.00,WUHU216HW,2013-12-25 09:36:00,
2013-12-25 03:37:00,30.8,28.0,30.23,West,270,0.0,4.8,89,0.00,,,0.00,WUHU216HW,2013-12-25 09:37:00,
2013-12-25 03:38:00,30.8,28.0,30.23,WNW,293,0.0,4.8,89,0.00,,,0.00,WUHU216HW,2013-12-25 09:38:00,
2013-12-25 03:39:00,30.8,28.0,30.23,NW,315,0.0,4.8,89,0.00,,,0.00,WUHU216HW,2013-12-25 09:39:00,
2013-12-25 03:40:00,30.8,28.0,30.23,West,270,0.0,4.8,89,0.00,,,0.00,WUHU216HW,2013-12-25 09:40:00,
2013-12-25 03:41:00,30.8,28.0,30.23,NNW,338,0.0,4.8,89,0.00,,,0.00,WUHU216HW,2013-12-25 09:41:00,
2013-12-25 03:42:00,30.8,28.0,30.23,WNW,293,0.0,4.8,89,0.00,,,0.00,WUHU216HW,2013-12-25 09:42:00,
2013-12-25 03:43:00,30.8,28.0,30.23,WNW,293,2.0,4.8,89,0.00,,,0.00,WUHU216HW,2013-12-25 09:43:00,
2013-12-25 03:45:00,30.8,28.0,30.23,SW,225,0.0,2.5,89,0.00,,,0.00,WUHU216HW,2013-12-25 09:45:00,
2013-12-25 03:47:00,30.8,28.0,30.23,WNW,293,1.8,4.3,89,0.00,,,0.00,WUHU216HW,2013-12-25 09:47:00,
2013-12-25 03:50:00,30.8,28.0,30.23,NW,315,0.0,4.3,89,0.00,,,0.00,WUHU216HW,2013-12-25 09:50:00,
2013-12-25 03:51:00,30.8,28.0,30.23,South,180,0.7,4.3,89,0.00,,,0.00,WUHU216HW,2013-12-25 09:51:00,
2013-12-25 03:52:00,30.8,28.0,30.23,WNW,293,0.0,4.3,89,0.00,,,0.00,WUHU216HW,2013-12-25 09:52:00,
2013-12-25 03:55:00,30.8,28.0,30.23,NW,315,0.0,4.3,89,0.00,,,0.00,WUHU216HW,2013-12-25 09:55:00,
2013-12-25 03:56:00,30.8,28.0,30.22,NW,315,0.0,3.4,89,0.00,,,0.00,WUHU216HW,2013-12-25 09:56:00,
2013-12-25 03:57:00,30.8,28.0,30.22,SW,225,0.0,3.4,89,0.00,,,0.00,WUHU216HW,2013-12-25 09:57:00,
2013-12-25 03:58:00,30.8,28.0,30.22,NNW,338,0.0,3.4,89,0.00,,,0.00,WUHU216HW,2013-12-25 09:58:00,
2013-12-25 04:00:00,30.8,28.0,30.22,West,270,1.8,3.4,89,0.00,,,0.00,WUHU216HW,2013-12-25 10:00:00,
2013-12-25 04:01:00,30.8,28.0,30.22,NW,315,0.0,3.4,89,0.00,,,0.00,WUHU216HW,2013-12-25 10:01:00,
2013-12-25 04:02:00,30.8,28.0,30.22,SW,225,0.0,3.4,89,0.00,,,0.00,WUHU216HW,2013-12-25 10:02:00,
2013-12-25 04:03:00,30.8,28.0,30.22,NNW,338,0.0,3.4,89,0.00,,,0.00,WUHU216HW,2013-12-25 10:03:00,
2013-12-25 04:06:00,30.8,28.0,30.22,WNW,293,1.3,4.3,89,0.00,,,0.00,WUHU216HW,2013-12-25 10:06:00,
2013-12-25 04:07:00,30.8,28.0,30.23,WNW,293,0.4,4.3,89,0.00,,,0.00,WUHU216HW,2013-12-25 10:07:00,
2013-12-25 04:08:00,30.8,28.0,30.23,NNW,338,0.0,4.3,89,0.00,,,0.00,WUHU216HW,2013-12-25 10:08:00,
2013-12-25 04:09:00,30.8,28.0,30.23,WNW,293,0.0,4.3,89,0.00,,,0.00,WUHU216HW,2013-12-25 10:09:00,
2013-12-25 04:11:00,30.8,28.0,30.23,WNW,293,0.4,4.3,89,0.00,,,0.00,WUHU216HW,2013-12-25 10:11:00,
2013-12-25 04:12:00,30.8,28.0,30.23,NNW,338,0.0,4.3,89,0.00,,,0.00,WUHU216HW,2013-12-25 10:12:00,
2013-12-25 04:13:00,30.8,28.0,30.23,WSW,248,0.4,4.3,89,0.00,,,0.00,WUHU216HW,2013-12-25 10:13:00,
2013-12-25 04:14:00,30.8,28.0,30.23,WNW,293,1.6,4.3,89,0.00,,,0.00,WUHU216HW,2013-12-25 10:14:00,
2013-12-25 04:16:00,30.8,28.0,30.23,NW,315,1.6,2.3,89,0.00,,,0.00,WUHU216HW,2013-12-25 10:16:00,
2013-12-25 04:17:00,30.8,28.0,30.23,WNW,293,0.4,2.3,89,0.00,,,0.00,WUHU216HW,2013-12-25 10:17:00,
2013-12-25 04:18:00,30.8,28.0,30.23,NNW,338,0.0,2.3,89,0.00,,,0.00,WUHU216HW,2013-12-25 10:18:00,
2013-12-25 04:19:00,31.0,28.2,30.23,West,270,0.0,2.3,89,0.00,,,0.00,WUHU216HW,2013-12-25 10:19:00,
2013-12-25 04:22:00,31.0,28.2,30.23,NW,315,0.0,4.3,89,0.00,,,0.00,WUHU216HW,2013-12-25 10:22:00,
2013-12-25 04:23:00,31.0,28.2,30.23,WNW,293,3.4,4.3,89,0.00,,,0.00,WUHU216HW,2013-12-25 10:23:00,
2013-12-25 04:24:00,31.0,28.2,30.23,WNW,293,0.2,4.3,89,0.00,,,0.00,WUHU216HW,2013-12-25 10:24:00,
2013-12-25 04:27:00,31.0,28.2,30.23,NNW,338,1.1,4.3,89,0.00,,,0.00,WUHU216HW,2013-12-25 10:27:00,
2013-12-25 04:28:00,31.0,28.2,30.23,NW,315,0.0,4.3,89,0.00,,,0.00,WUHU216HW,2013-12-25 10:28:00,
2013-12-25 04:29:00,31.0,28.2,30.23,WSW,248,0.0,4.3,89,0.00,,,0.00,WUHU216HW,2013-12-25 10:29:00,
2013-12-25 04:32:00,31.0,28.2,30.23,West,270,0.0,4.3,89,0.00,,,0.00,WUHU216HW,2013-12-25 10:32:00,
2013-12-25 04:33:00,31.0,28.2,30.23,WNW,293,0.0,4.3,89,0.00,,,0.00,WUHU216HW,2013-12-25 10:33:00,
2013-12-25 04:34:00,31.0,28.2,30.23,WNW,293,0.0,3.4,89,0.00,,,0.00,WUHU216HW,2013-12-25 10:34:00,
2013-12-25 04:37:00,31.0,28.2,30.23,WNW,293,0.4,3.4,89,0.00,,,0.00,WUHU216HW,2013-12-25 10:37:00,
2013-12-25 04:38:00,31.0,28.2,30.23,WNW,293,0.4,3.4,89,0.00,,,0.00,WUHU216HW,2013-12-25 10:38:00,
2013-12-25 04:39:00,31.0,28.2,30.23,West,270,0.0,3.4,89,0.00,,,0.00,WUHU216HW,2013-12-25 10:39:00,
2013-12-25 04:42:00,31.0,28.2,30.23,WSW,248,0.0,1.6,89,0.00,,,0.00,WUHU216HW,2013-12-25 10:42:00,
2013-12-25 04:43:00,31.0,28.2,30.23,WNW,293,0.2,1.6,89,0.00,,,0.00,WUHU216HW,2013-12-25 10:43:00,
2013-12-25 04:44:00,30.8,28.0,30.23,West,270,1.8,2.5,89,0.00,,,0.00,WUHU216HW,2013-12-25 10:44:00,
2013-12-25 04:45:00,31.0,28.2,30.23,NW,315,0.7,2.5,89,0.00,,,0.00,WUHU216HW,2013-12-25 10:45:00,
2013-12-25 04:47:00,30.8,28.0,30.24,NW,315,0.0,2.5,89,0.00,,,0.00,WUHU216HW,2013-12-25 10:47:00,
2013-12-25 04:48:00,30.8,28.0,30.24,NW,315,0.0,2.5,89,0.00,,,0.00,WUHU216HW,2013-12-25 10:48:00,
2013-12-25 04:49:00,30.8,28.0,30.24,West,270,0.0,2.5,89,0.00,,,0.00,WUHU216HW,2013-12-25 10:49:00,
2013-12-25 04:50:00,31.0,28.2,30.24,NW,315,2.0,3.9,89,0.00,,,0.00,WUHU216HW,2013-12-25 10:50:00,
2013-12-25 04:52:00,30.8,28.0,30.24,NW,315,3.1,6.4,89,0.00,,,0.00,WUHU216HW,2013-12-25 10:52:00,
2013-12-25 04:53:00,30.8,28.0,30.24,NNW,338,1.3,6.4,89,0.00,,,0.00,WUHU216HW,2013-12-25 10:53:00,
2013-12-25 04:54:00,30.8,28.0,30.23,NW,315,1.1,6.4,89,0.00,,,0.00,WUHU216HW,2013-12-25 10:54:00,
2013-12-25 04:55:00,30.8,28.0,30.24,ENE,68,0.0,6.4,89,0.00,,,0.00,WUHU216HW,2013-12-25 10:55:00,
2013-12-25 04:57:00,30.8,28.0,30.24,NNW,338,4.7,9.5,89,0.00,,,0.00,WUHU216HW,2013-12-25 10:57:00,
2013-12-25 04:59:00,30.8,28.0,30.24,NW,315,1.8,9.5,89,0.00,,,0.00,WUHU216HW,2013-12-25 10:59:00,
2013-12-25 05:00:00,30.8,28.0,30.24,NNW,338,4.7,9.5,89,0.00,,,0.00,WUHU216HW,2013-12-25 11:00:00,
2013-12-25 05:02:00,30.8,28.0,30.24,SW,225,0.0,9.5,89,0.00,,,0.00,WUHU216HW,2013-12-25 11:02:00,
2013-12-25 05:04:00,30.8,28.0,30.24,NNW,338,1.1,9.5,89,0.00,,,0.00,WUHU216HW,2013-12-25 11:04:00,
2013-12-25 05:05:00,30.8,28.0,30.24,WNW,293,3.1,9.5,89,0.00,,,0.00,WUHU216HW,2013-12-25 11:05:00,
2013-12-25 05:06:00,30.8,28.0,30.24,North,0,4.0,9.5,89,0.00,,,0.00,WUHU216HW,2013-12-25 11:06:00,
2013-12-25 05:07:00,30.8,27.7,30.24,NNW,338,2.9,7.3,88,0.00,,,0.00,WUHU216HW,2013-12-25 11:07:00,
2013-12-25 05:08:00,30.8,28.0,30.24,WNW,293,3.6,7.3,89,0.00,,,0.00,WUHU216HW,2013-12-25 11:08:00,
2013-12-25 05:09:00,30.8,27.7,30.24,North,0,1.1,7.3,88,0.00,,,0.00,WUHU216HW,2013-12-25 11:09:00,
2013-12-25 05:10:00,30.8,28.0,30.24,WNW,293,2.9,7.3,89,0.00,,,0.00,WUHU216HW,2013-12-25 11:10:00,
2013-12-25 05:11:00,30.6,27.6,30.24,NNW,338,2.5,7.3,88,0.00,,,0.00,WUHU216HW,2013-12-25 11:11:00,
2013-12-25 05:12:00,30.6,27.6,30.23,West,270,4.9,9.5,88,0.00,,,0.00,WUHU216HW,2013-12-25 11:12:00,
2013-12-25 05:13:00,30.6,27.6,30.24,West,270,0.0,9.5,88,0.00,,,0.00,WUHU216HW,2013-12-25 11:13:00,
2013-12-25 05:14:00,30.6,27.6,30.24,West,270,0.0,9.5,88,0.00,,,0.00,WUHU216HW,2013-12-25 11:14:00,
2013-12-25 05:15:00,30.6,27.6,30.24,NNW,338,0.4,9.5,88,0.00,,,0.00,WUHU216HW,2013-12-25 11:15:00,
2013-12-25 05:16:00,30.6,27.6,30.24,NW,315,2.9,9.5,88,0.00,,,0.00,WUHU216HW,2013-12-25 11:16:00,
2013-12-25 05:17:00,30.6,27.6,30.24,NW,315,5.1,9.5,88,0.00,,,0.00,WUHU216HW,2013-12-25 11:17:00,
2013-12-25 05:18:00,30.6,27.6,30.24,North,0,2.5,9.5,88,0.00,,,0.00,WUHU216HW,2013-12-25 11:18:00,
2013-12-25 05:19:00,30.6,27.6,30.24,NW,315,1.3,9.5,88,0.00,,,0.00,WUHU216HW,2013-12-25 11:19:00,
2013-12-25 05:20:00,30.6,27.6,30.24,WNW,293,6.7,9.5,88,0.00,,,0.00,WUHU216HW,2013-12-25 11:20:00,
2013-12-25 05:21:00,30.6,27.6,30.24,WSW,248,3.4,9.5,88,0.00,,,0.00,WUHU216HW,2013-12-25 11:21:00,
2013-12-25 05:22:00,30.6,27.6,30.24,South,180,0.0,9.5,88,0.00,,,0.00,WUHU216HW,2013-12-25 11:22:00,
2013-12-25 05:24:00,30.6,27.6,30.24,West,270,0.4,8.4,88,0.00,,,0.00,WUHU216HW,2013-12-25 11:24:00,
2013-12-25 05:26:00,30.6,27.6,30.24,SSW,203,2.5,8.4,88,0.00,,,0.00,WUHU216HW,2013-12-25 11:26:00,
2013-12-25 05:27:00,30.6,27.6,30.24,WNW,293,1.8,8.4,88,0.00,,,0.00,WUHU216HW,2013-12-25 11:27:00,
2013-12-25 05:29:00,30.6,27.6,30.24,North,0,0.0,8.4,88,0.00,,,0.00,WUHU216HW,2013-12-25 11:29:00,
2013-12-25 05:32:00,30.6,27.6,30.24,West,270,1.1,4.5,88,0.00,,,0.00,WUHU216HW,2013-12-25 11:32:00,
2013-12-25 05:34:00,30.6,27.6,30.24,NW,315,0.0,4.5,88,0.00,,,0.00,WUHU216HW,2013-12-25 11:34:00,
2013-12-25 05:37:00,30.6,27.6,30.24,West,270,0.0,2.5,88,0.00,,,0.00,WUHU216HW,2013-12-25 11:37:00,
2013-12-25 05:38:00,30.6,27.6,30.24,NNE,23,0.0,2.3,88,0.00,,,0.00,WUHU216HW,2013-12-25 11:38:00,
2013-12-25 05:39:00,30.6,27.6,30.24,SSW,203,0.0,2.3,88,0.00,,,0.00,WUHU216HW,2013-12-25 11:39:00,
2013-12-25 05:40:00,30.6,27.6,30.24,WNW,293,1.8,2.3,88,0.00,,,0.00,WUHU216HW,2013-12-25 11:40:00,
2013-12-25 05:42:00,30.6,27.6,30.24,NW,315,0.0,3.6,88,0.00,,,0.00,WUHU216HW,2013-12-25 11:42:00,
2013-12-25 05:43:00,30.6,27.6,30.24,NW,315,0.0,3.6,88,0.00,,,0.00,WUHU216HW,2013-12-25 11:43:00,
2013-12-25 05:45:00,30.6,27.6,30.24,West,270,0.4,3.6,88,0.00,,,0.00,WUHU216HW,2013-12-25 11:45:00,
2013-12-25 05:47:00,30.6,27.6,30.24,NNW,338,3.8,5.6,88,0.00,,,0.00,WUHU216HW,2013-12-25 11:47:00,
2013-12-25 05:48:00,30.6,27.6,30.24,North,0,3.6,5.6,88,0.00,,,0.00,WUHU216HW,2013-12-25 11:48:00,
2013-12-25 05:49:00,30.6,27.6,30.24,North,0,1.3,5.6,88,0.00,,,0.00,WUHU216HW,2013-12-25 11:49:00,
2013-12-25 05:50:00,30.6,27.6,30.24,NNW,338,4.0,5.6,88,0.00,,,0.00,WUHU216HW,2013-12-25 11:50:00,
2013-12-25 05:53:00,30.4,27.4,30.24,NNE,23,1.1,5.6,88,0.00,,,0.00,WUHU216HW,2013-12-25 11:53:00,
2013-12-25 05:54:00,30.6,27.6,30.24,NNW,338,0.9,5.6,88,0.00,,,0.00,WUHU216HW,2013-12-25 11:54:00,
2013-12-25 05:55:00,30.4,27.4,30.24,NNW,338,0.2,5.6,88,0.00,,,0.00,WUHU216HW,2013-12-25 11:55:00,
2013-12-25 05:58:00,30.4,27.4,30.24,NW,315,0.4,5.0,88,0.00,,,0.00,WUHU216HW,2013-12-25 11:58:00,
2013-12-25 05:59:00,30.4,27.4,30.24,North,0,0.0,5.0,88,0.00,,,0.00,WUHU216HW,2013-12-25 11:59:00,
2013-12-25 06:00:00,30.4,27.4,30.24,NNW,338,0.4,5.0,88,0.00,,,0.00,WUHU216HW,2013-12-25 12:00:00,
2013-12-25 06:03:00,30.4,27.4,30.24,NNW,338,0.9,3.1,88,0.00,,,0.00,WUHU216HW,2013-12-25 12:03:00,
2013-12-25 06:04:00,30.4,27.4,30.24,North,0,0.0,3.1,88,0.00,,,0.00,WUHU216HW,2013-12-25 12:04:00,
2013-12-25 06:05:00,30.4,27.4,30.24,NW,315,1.1,3.1,88,0.00,,,0.00,WUHU216HW,2013-12-25 12:05:00,
2013-12-25 06:09:00,30.4,27.6,30.24,NW,315,1.3,3.9,89,0.00,,,0.00,WUHU216HW,2013-12-25 12:09:00,
2013-12-25 06:10:00,30.4,27.6,30.24,WNW,293,1.1,3.9,89,0.00,,,0.00,WUHU216HW,2013-12-25 12:10:00,
2013-12-25 06:14:00,30.2,27.2,30.24,West,270,1.8,3.9,88,0.00,,,0.00,WUHU216HW,2013-12-25 12:14:00,
2013-12-25 06:15:00,30.2,27.2,30.24,NNW,338,1.1,3.9,88,0.00,,,0.00,WUHU216HW,2013-12-25 12:15:00,
2013-12-25 06:19:00,30.2,27.2,30.24,NW,315,0.4,4.5,88,0.00,,,0.00,WUHU216HW,2013-12-25 12:19:00,
2013-12-25 06:20:00,30.2,27.2,30.24,North,0,0.4,4.5,88,0.00,,,0.00,WUHU216HW,2013-12-25 12:20:00,
2013-12-25 06:21:00,30.2,27.2,30.24,NNW,338,0.9,4.5,88,0.00,,,0.00,WUHU216HW,2013-12-25 12:21:00,
2013-12-25 06:25:00,30.2,27.2,30.24,West,270,0.0,4.5,88,0.00,,,0.00,WUHU216HW,2013-12-25 12:25:00,
2013-12-25 06:26:00,30.1,27.0,30.24,WNW,293,1.1,4.5,88,0.00,,,0.00,WUHU216HW,2013-12-25 12:26:00,
2013-12-25 06:30:00,30.1,26.6,30.24,WNW,293,0.0,4.3,87,0.00,,,0.00,WUHU216HW,2013-12-25 12:30:00,
2013-12-25 06:31:00,30.1,26.6,30.24,West,270,0.4,4.3,87,0.00,,,0.00,WUHU216HW,2013-12-25 12:31:00,
2013-12-25 06:35:00,30.1,26.6,30.24,NW,315,0.0,3.6,87,0.00,,,0.00,WUHU216HW,2013-12-25 12:35:00,
2013-12-25 06:36:00,30.1,26.6,30.24,West,270,0.0,3.6,87,0.00,,,0.00,WUHU216HW,2013-12-25 12:36:00,
2013-12-25 06:37:00,30.1,26.6,30.24,NW,315,0.0,3.6,87,0.00,,,0.00,WUHU216HW,2013-12-25 12:37:00,
2013-12-25 06:40:00,30.1,26.6,30.24,NW,315,0.0,3.6,87,0.00,,,0.00,WUHU216HW,2013-12-25 12:40:00,
2013-12-25 06:41:00,30.1,26.6,30.24,WSW,248,0.0,1.6,87,0.00,,,0.00,WUHU216HW,2013-12-25 12:41:00,
2013-12-25 06:42:00,30.1,26.6,30.24,North,0,1.3,4.3,87,0.00,,,0.00,WUHU216HW,2013-12-25 12:42:00,
2013-12-25 06:45:00,29.9,26.5,30.24,WSW,248,0.0,4.3,87,0.00,,,0.00,WUHU216HW,2013-12-25 12:45:00,
2013-12-25 06:46:00,29.9,26.5,30.24,WNW,293,0.0,4.3,87,0.00,,,0.00,WUHU216HW,2013-12-25 12:46:00,
2013-12-25 06:47:00,29.9,26.5,30.24,WNW,293,0.2,4.3,87,0.00,,,0.00,WUHU216HW,2013-12-25 12:47:00,
2013-12-25 06:48:00,29.9,26.5,30.24,North,0,0.0,4.3,87,0.00,,,0.00,WUHU216HW,2013-12-25 12:48:00,
2013-12-25 06:50:00,29.9,26.5,30.24,West,270,0.0,4.3,87,0.00,,,0.00,WUHU216HW,2013-12-25 12:50:00,
2013-12-25 06:51:00,29.9,26.5,30.24,NNW,338,0.9,4.3,87,0.00,,,0.00,WUHU216HW,2013-12-25 12:51:00,
2013-12-25 06:52:00,29.9,26.5,30.24,WSW,248,1.3,2.3,87,0.00,,,0.00,WUHU216HW,2013-12-25 12:52:00,
2013-12-25 06:53:00,29.9,26.5,30.24,WNW,293,1.1,2.3,87,0.00,,,0.00,WUHU216HW,2013-12-25 12:53:00,
2013-12-25 06:55:00,29.9,26.5,30.24,WNW,293,0.0,2.3,87,0.00,,,0.00,WUHU216HW,2013-12-25 12:55:00,
2013-12-25 06:56:00,29.9,26.5,30.24,North,0,0.0,2.3,87,0.00,,,0.00,WUHU216HW,2013-12-25 12:56:00,
2013-12-25 06:57:00,29.9,26.5,30.24,NNE,23,0.0,2.3,87,0.00,,,0.00,WUHU216HW,2013-12-25 12:57:00,
2013-12-25 06:58:00,29.9,26.5,30.24,North,0,0.0,2.3,87,0.00,,,0.00,WUHU216HW,2013-12-25 12:58:00,
2013-12-25 07:00:00,29.9,26.5,30.24,West,270,0.9,2.3,87,0.00,,,0.00,WUHU216HW,2013-12-25 13:00:00,
2013-12-25 07:01:00,29.9,26.5,30.24,WNW,293,0.9,2.3,87,0.00,,,0.00,WUHU216HW,2013-12-25 13:01:00,
2013-12-25 07:02:00,29.9,26.5,30.24,SW,225,0.0,1.6,87,0.00,,,0.00,WUHU216HW,2013-12-25 13:02:00,
2013-12-25 07:04:00,29.9,26.5,30.24,NW,315,0.0,1.1,87,0.00,,,0.00,WUHU216HW,2013-12-25 13:04:00,
2013-12-25 07:05:00,29.9,26.5,30.24,NNW,338,0.4,1.1,87,0.00,,,0.00,WUHU216HW,2013-12-25 13:05:00,
2013-12-25 07:06:00,29.9,26.5,30.24,WNW,293,0.0,1.1,87,0.00,,,0.00,WUHU216HW,2013-12-25 13:06:00,
2013-12-25 07:07:00,29.9,26.5,30.24,WNW,293,0.0,1.1,87,0.00,,,0.00,WUHU216HW,2013-12-25 13:07:00,
2013-12-25 07:08:00,29.9,26.5,30.24,NW,315,0.0,1.1,87,0.00,,,0.00,WUHU216HW,2013-12-25 13:08:00,
2013-12-25 07:10:00,29.9,26.5,30.24,WNW,293,0.9,1.1,87,0.00,,,0.00,WUHU216HW,2013-12-25 13:10:00,
2013-12-25 07:11:00,29.9,26.5,30.25,North,0,0.0,1.6,87,0.00,,,0.00,WUHU216HW,2013-12-25 13:11:00,
2013-12-25 07:12:00,29.9,26.5,30.25,WSW,248,1.1,1.6,87,0.00,,,0.00,WUHU216HW,2013-12-25 13:12:00,
2013-12-25 07:13:00,29.9,26.5,30.25,WSW,248,1.1,1.6,87,0.00,,,0.00,WUHU216HW,2013-12-25 13:13:00,
2013-12-25 07:16:00,29.9,26.5,30.26,North,0,0.0,4.3,87,0.00,,,0.00,WUHU216HW,2013-12-25 13:16:00,
2013-12-25 07:17:00,29.9,26.5,30.26,WNW,293,0.4,4.3,87,0.00,,,0.00,WUHU216HW,2013-12-25 13:17:00,
2013-12-25 07:18:00,29.9,26.5,30.26,NW,315,1.1,4.3,87,0.00,,,0.00,WUHU216HW,2013-12-25 13:18:00,
2013-12-25 07:21:00,29.7,26.3,30.26,NW,315,1.8,4.3,87,0.00,,,0.00,WUHU216HW,2013-12-25 13:21:00,
2013-12-25 07:22:00,29.9,26.5,30.26,NW,315,0.2,4.3,87,0.00,,,0.00,WUHU216HW,2013-12-25 13:22:00,
2013-12-25 07:23:00,29.9,26.5,30.26,SW,225,0.9,4.3,87,0.00,,,0.00,WUHU216HW,2013-12-25 13:23:00,
2013-12-25 07:24:00,29.9,26.5,30.26,West,270,4.5,5.6,87,0.00,,,0.00,WUHU216HW,2013-12-25 13:24:00,
2013-12-25 07:27:00,29.7,26.3,30.27,NNW,338,4.9,6.1,87,0.00,,,0.00,WUHU216HW,2013-12-25 13:27:00,
2013-12-25 07:28:00,29.7,26.3,30.26,NNW,338,2.7,7.9,87,0.00,,,0.00,WUHU216HW,2013-12-25 13:28:00,
2013-12-25 07:29:00,29.7,26.3,30.27,North,0,0.9,7.9,87,0.00,,,0.00,WUHU216HW,2013-12-25 13:29:00,
2013-12-25 07:32:00,29.7,26.3,30.27,North,0,1.1,7.9,87,0.00,,,0.00,WUHU216HW,2013-12-25 13:32:00,
2013-12-25 07:33:00,29.7,26.3,30.27,NW,315,0.0,7.9,87,0.00,,,0.00,WUHU216HW,2013-12-25 13:33:00,
2013-12-25 07:34:00,29.7,26.3,30.27,WSW,248,0.4,7.9,87,0.00,,,0.00,WUHU216HW,2013-12-25 13:34:00,
2013-12-25 07:37:00,29.7,26.3,30.27,NNE,23,0.0,7.9,87,0.00,,,0.00,WUHU216HW,2013-12-25 13:37:00,
2013-12-25 07:38:00,29.7,26.3,30.27,WNW,293,0.0,3.4,87,0.00,,,0.00,WUHU216HW,2013-12-25 13:38:00,
2013-12-25 07:39:00,29.7,26.3,30.27,NNE,23,0.0,2.3,87,0.00,,,0.00,WUHU216HW,2013-12-25 13:39:00,
2013-12-25 07:42:00,29.7,26.3,30.27,West,270,1.8,4.3,87,0.00,,,0.00,WUHU216HW,2013-12-25 13:42:00,
2013-12-25 07:43:00,29.7,26.3,30.27,WSW,248,2.2,4.3,87,0.00,,,0.00,WUHU216HW,2013-12-25 13:43:00,
2013-12-25 07:45:00,29.7,26.3,30.28,NE,45,0.0,4.3,87,0.00,,,0.00,WUHU216HW,2013-12-25 13:45:00,
2013-12-25 07:47:00,29.7,26.3,30.28,NW,315,4.7,5.9,87,0.00,,,0.00,WUHU216HW,2013-12-25 13:47:00,
2013-12-25 07:48:00,29.7,26.3,30.28,NW,315,4.7,5.9,87,0.00,,,0.00,WUHU216HW,2013-12-25 13:48:00,
2013-12-25 07:50:00,29.7,26.3,30.28,NNW,338,2.5,5.9,87,0.00,,,0.00,WUHU216HW,2013-12-25 13:50:00,
2013-12-25 07:53:00,29.5,26.1,30.28,NNW,338,2.5,7.0,87,0.00,,,0.00,WUHU216HW,2013-12-25 13:53:00,
2013-12-25 07:54:00,29.5,25.8,30.28,NW,315,0.0,7.0,86,0.00,,,0.00,WUHU216HW,2013-12-25 13:54:00,
2013-12-25 07:56:00,29.5,25.8,30.28,North,0,3.8,7.9,86,0.00,,,0.00,WUHU216HW,2013-12-25 13:56:00,
2013-12-25 07:58:00,29.5,25.8,30.28,WSW,248,4.3,7.9,86,0.00,,,0.00,WUHU216HW,2013-12-25 13:58:00,
2013-12-25 07:59:00,29.5,25.8,30.28,WNW,293,0.9,7.9,86,0.00,,,0.00,WUHU216HW,2013-12-25 13:59:00,
2013-12-25 08:01:00,29.5,25.8,30.28,West,270,0.0,7.9,86,0.00,,,0.00,WUHU216HW,2013-12-25 14:01:00,
2013-12-25 08:03:00,29.5,25.8,30.28,WNW,293,2.0,7.9,86,0.00,,,0.00,WUHU216HW,2013-12-25 14:03:00,
2013-12-25 08:04:00,29.5,25.8,30.28,NW,315,2.9,7.9,86,0.00,,,0.00,WUHU216HW,2013-12-25 14:04:00,
2013-12-25 08:07:00,29.5,25.8,30.28,West,270,2.5,5.4,86,0.00,,,0.00,WUHU216HW,2013-12-25 14:07:00,
2013-12-25 08:08:00,29.5,25.8,30.28,NW,315,0.7,5.4,86,0.00,,,0.00,WUHU216HW,2013-12-25 14:08:00,
2013-12-25 08:09:00,29.5,25.8,30.29,NNW,338,3.1,5.4,86,0.00,,,0.00,WUHU216HW,2013-12-25 14:09:00,
2013-12-25 08:12:00,29.5,25.8,30.29,NNW,338,0.0,5.4,86,0.00,,,0.00,WUHU216HW,2013-12-25 14:12:00,
2013-12-25 08:14:00,29.5,26.1,30.29,NW,315,1.3,6.8,87,0.00,,,0.00,WUHU216HW,2013-12-25 14:14:00,
2013-12-25 08:15:00,29.5,26.1,30.29,North,0,4.5,6.8,87,0.00,,,0.00,WUHU216HW,2013-12-25 14:15:00,
2013-12-25 08:17:00,29.5,25.8,30.29,NNW,338,0.4,6.8,86,0.00,,,0.00,WUHU216HW,2013-12-25 14:17:00,
2013-12-25 08:19:00,29.5,25.8,30.29,NW,315,0.0,6.8,86,0.00,,,0.00,WUHU216HW,2013-12-25 14:19:00,
2013-12-25 08:20:00,29.5,25.8,30.29,NNE,23,0.0,6.8,86,0.00,,,0.00,WUHU216HW,2013-12-25 14:20:00,
2013-12-25 08:22:00,29.5,25.8,30.29,NW,315,0.0,6.8,86,0.00,,,0.00,WUHU216HW,2013-12-25 14:22:00,
2013-12-25 08:24:00,29.5,25.8,30.29,NW,315,1.6,5.6,86,0.00,,,0.00,WUHU216HW,2013-12-25 14:24:00,
2013-12-25 08:25:00,29.5,25.8,30.29,NW,315,0.2,5.4,86,0.00,,,0.00,WUHU216HW,2013-12-25 14:25:00,
2013-12-25 08:27:00,29.7,26.0,30.29,NNW,338,1.3,4.3,86,0.00,,,0.00,WUHU216HW,2013-12-25 14:27:00,
2013-12-25 08:29:00,29.7,26.0,30.29,North,0,1.1,2.5,86,0.00,,,0.00,WUHU216HW,2013-12-25 14:29:00,
2013-12-25 08:30:00,29.7,26.0,30.29,SE,135,0.0,2.5,86,0.00,,,0.00,WUHU216HW,2013-12-25 14:30:00,
2013-12-25 08:31:00,29.7,26.0,30.28,NNW,338,0.0,2.5,86,0.00,,,0.00,WUHU216HW,2013-12-25 14:31:00,
2013-12-25 08:33:00,29.7,26.0,30.28,NNW,338,0.4,2.5,86,0.00,,,0.00,WUHU216HW,2013-12-25 14:33:00,
2013-12-25 08:34:00,29.7,26.0,30.28,North,0,0.0,2.5,86,0.00,,,0.00,WUHU216HW,2013-12-25 14:34:00,
2013-12-25 08:35:00,29.7,25.7,30.28,NW,315,0.0,2.5,85,0.00,,,0.00,WUHU216HW,2013-12-25 14:35:00,
2013-12-25 08:36:00,29.7,25.7,30.28,NW,315,0.0,2.5,85,0.00,,,0.00,WUHU216HW,2013-12-25 14:36:00,
2013-12-25 08:37:00,29.7,25.7,30.28,NW,315,0.0,2.5,85,0.00,,,0.00,WUHU216HW,2013-12-25 14:37:00,
2013-12-25 08:38:00,29.9,26.2,30.28,WNW,293,0.4,2.5,86,0.00,,,0.00,WUHU216HW,2013-12-25 14:38:00,
2013-12-25 08:39:00,29.9,25.9,30.28,SW,225,0.9,2.3,85,0.00,,,0.00,WUHU216HW,2013-12-25 14:39:00,
2013-12-25 08:40:00,29.9,26.2,30.28,WSW,248,0.0,2.3,86,0.00,,,0.00,WUHU216HW,2013-12-25 14:40:00,
2013-12-25 08:41:00,29.9,26.2,30.28,West,270,0.0,2.3,86,0.00,,,0.00,WUHU216HW,2013-12-25 14:41:00,
2013-12-25 08:42:00,29.9,25.9,30.28,North,0,0.0,2.3,85,0.00,,,0.00,WUHU216HW,2013-12-25 14:42:00,
2013-12-25 08:44:00,30.1,26.1,30.28,SW,225,0.0,2.0,85,0.00,,,0.00,WUHU216HW,2013-12-25 14:44:00,
2013-12-25 08:45:00,30.1,26.1,30.28,NW,315,0.0,2.0,85,0.00,,,0.00,WUHU216HW,2013-12-25 14:45:00,
2013-12-25 08:46:00,30.1,26.1,30.28,WNW,293,0.0,2.0,85,0.00,,,0.00,WUHU216HW,2013-12-25 14:46:00,
2013-12-25 08:47:00,30.1,26.1,30.28,NW,315,2.2,2.8,85,0.00,,,0.00,WUHU216HW,2013-12-25 14:47:00,
2013-12-25 08:49:00,30.2,26.3,30.28,WNW,293,0.0,2.8,85,0.00,,,0.00,WUHU216HW,2013-12-25 14:49:00,
2013-12-25 08:50:00,30.2,26.3,30.28,WNW,293,0.0,2.8,85,0.00,,,0.00,WUHU216HW,2013-12-25 14:50:00,
2013-12-25 08:51:00,30.2,26.3,30.28,WNW,293,0.0,2.8,85,0.00,,,0.00,WUHU216HW,2013-12-25 14:51:00,
2013-12-25 08:53:00,30.6,26.6,30.28,NW,315,0.0,2.8,85,0.00,,,0.00,WUHU216HW,2013-12-25 14:53:00,
2013-12-25 08:54:00,30.6,26.6,30.27,NE,45,0.0,2.8,85,0.00,,,0.00,WUHU216HW,2013-12-25 14:54:00,
2013-12-25 08:55:00,30.8,26.8,30.27,SSW,203,0.0,2.8,85,0.00,,,0.00,WUHU216HW,2013-12-25 14:55:00,
2013-12-25 08:56:00,31.0,27.0,30.27,SW,225,0.0,2.8,85,0.00,,,0.00,WUHU216HW,2013-12-25 14:56:00,
2013-12-25 08:58:00,31.3,27.4,30.27,South,180,0.0,0.9,85,0.00,,,0.00,WUHU216HW,2013-12-25 14:58:00,
2013-12-25 09:00:00,31.7,27.7,30.27,NW,315,0.0,0.9,85,0.00,,,0.00,WUHU216HW,2013-12-25 15:00:00,
2013-12-25 09:01:00,32.0,28.1,30.28,NW,315,0.0,0.9,85,0.00,,,0.00,WUHU216HW,2013-12-25 15:01:00,
2013-12-25 09:03:00,32.2,28.0,30.28,West,270,0.0,0.0,84,0.00,,,0.00,WUHU216HW,2013-12-25 15:03:00,
2013-12-25 09:05:00,32.6,28.3,30.28,NW,315,0.4,0.5,84,0.00,,,0.00,WUHU216HW,2013-12-25 15:05:00,
2013-12-25 09:07:00,32.9,28.6,30.28,West,270,0.0,1.1,84,0.00,,,0.00,WUHU216HW,2013-12-25 15:07:00,
2013-12-25 09:08:00,33.1,28.4,30.28,WSW,248,0.2,1.1,83,0.00,,,0.00,WUHU216HW,2013-12-25 15:08:00,
2013-12-25 09:10:00,33.5,28.8,30.27,SW,225,0.0,1.1,83,0.00,,,0.00,WUHU216HW,2013-12-25 15:10:00,
2013-12-25 09:12:00,33.5,28.8,30.28,SSW,203,0.0,1.1,83,0.00,,,0.00,WUHU216HW,2013-12-25 15:12:00,
2013-12-25 09:13:00,33.5,28.8,30.28,West,270,0.9,2.0,83,0.00,,,0.00,WUHU216HW,2013-12-25 15:13:00,
2013-12-25 09:15:00,33.5,28.5,30.28,West,270,0.7,2.0,82,0.00,,,0.00,WUHU216HW,2013-12-25 15:15:00,
2013-12-25 09:16:00,33.5,28.5,30.28,West,270,2.2,4.5,82,0.00,,,0.00,WUHU216HW,2013-12-25 15:16:00,
2013-12-25 09:17:00,33.7,28.7,30.28,SSW,203,0.0,4.5,82,0.00,,,0.00,WUHU216HW,2013-12-25 15:17:00,
2013-12-25 09:18:00,33.8,28.8,30.28,SW,225,0.0,4.5,82,0.00,,,0.00,WUHU216HW,2013-12-25 15:18:00,
2013-12-25 09:20:00,33.8,28.5,30.28,NNW,338,2.2,4.5,81,0.00,,,0.00,WUHU216HW,2013-12-25 15:20:00,
2013-12-25 09:21:00,33.8,28.3,30.28,West,270,0.9,4.5,80,0.00,,,0.00,WUHU216HW,2013-12-25 15:21:00,
2013-12-25 09:22:00,33.8,28.5,30.28,WNW,293,0.0,4.5,81,0.00,,,0.00,WUHU216HW,2013-12-25 15:22:00,
2013-12-25 09:23:00,33.8,28.5,30.28,South,180,0.9,4.5,81,0.00,,,0.00,WUHU216HW,2013-12-25 15:23:00,
2013-12-25 09:26:00,34.0,28.7,30.28,West,270,0.0,3.1,81,0.00,,,0.00,WUHU216HW,2013-12-25 15:26:00,
2013-12-25 09:27:00,34.2,29.2,30.28,SW,225,0.0,3.1,82,0.00,,,0.00,WUHU216HW,2013-12-25 15:27:00,
2013-12-25 09:28:00,34.2,28.9,30.28,SW,225,0.0,3.1,81,0.00,,,0.00,WUHU216HW,2013-12-25 15:28:00,
2013-12-25 09:31:00,34.6,29.0,30.28,SW,225,1.1,3.1,80,0.00,,,0.00,WUHU216HW,2013-12-25 15:31:00,
2013-12-25 09:32:00,34.7,29.4,30.28,SW,225,2.5,3.1,81,0.00,,,0.00,WUHU216HW,2013-12-25 15:32:00,
2013-12-25 09:33:00,34.9,29.6,30.28,SSW,203,3.8,4.8,81,0.00,,,0.00,WUHU216HW,2013-12-25 15:33:00,
2013-12-25 09:34:00,34.9,29.6,30.28,West,270,0.2,7.5,81,0.00,,,0.00,WUHU216HW,2013-12-25 15:34:00,
2013-12-25 09:36:00,35.1,29.5,30.29,ESE,113,0.0,7.5,80,0.00,,,0.00,WUHU216HW,2013-12-25 15:36:00,
2013-12-25 09:37:00,34.9,29.3,30.29,West,270,2.5,7.5,80,0.00,,,0.00,WUHU216HW,2013-12-25 15:37:00,
2013-12-25 09:38:00,34.9,29.3,30.29,NW,315,0.0,7.5,80,0.00,,,0.00,WUHU216HW,2013-12-25 15:38:00,
2013-12-25 09:39:00,35.1,29.5,30.29,WSW,248,0.2,7.5,80,0.00,,,0.00,WUHU216HW,2013-12-25 15:39:00,
2013-12-25 09:41:00,35.3,29.7,30.29,WSW,248,0.0,7.5,80,0.00,,,0.00,WUHU216HW,2013-12-25 15:41:00,
2013-12-25 09:42:00,35.1,29.5,30.29,WSW,248,0.9,7.5,80,0.00,,,0.00,WUHU216HW,2013-12-25 15:42:00,
2013-12-25 09:43:00,35.1,29.5,30.29,WSW,248,1.8,7.5,80,0.00,,,0.00,WUHU216HW,2013-12-25 15:43:00,
2013-12-25 09:44:00,35.1,29.2,30.29,WSW,248,0.9,3.1,79,0.00,,,0.00,WUHU216HW,2013-12-25 15:44:00,
2013-12-25 09:46:00,34.9,29.0,30.29,SSW,203,1.1,3.9,79,0.00,,,0.00,WUHU216HW,2013-12-25 15:46:00,
2013-12-25 09:48:00,34.9,28.7,30.29,SSW,203,2.5,4.3,78,0.00,,,0.00,WUHU216HW,2013-12-25 15:48:00,
2013-12-25 09:49:00,34.9,28.7,30.29,WSW,248,2.5,4.3,78,0.00,,,0.00,WUHU216HW,2013-12-25 15:49:00,
2013-12-25 09:51:00,34.9,28.7,30.29,SW,225,1.8,4.3,78,0.00,,,0.00,WUHU216HW,2013-12-25 15:51:00,
2013-12-25 09:53:00,34.9,28.7,30.29,SW,225,1.6,4.3,78,0.00,,,0.00,WUHU216HW,2013-12-25 15:53:00,
2013-12-25 09:54:00,34.9,28.7,30.29,West,270,0.0,4.3,78,0.00,,,0.00,WUHU216HW,2013-12-25 15:54:00,
2013-12-25 09:55:00,34.9,28.7,30.29,South,180,0.0,4.3,78,0.00,,,0.00,WUHU216HW,2013-12-25 15:55:00,
2013-12-25 09:56:00,35.1,28.9,30.29,NW,315,1.8,4.3,78,0.00,,,0.00,WUHU216HW,2013-12-25 15:56:00,
2013-12-25 09:58:00,35.3,29.1,30.29,NNW,338,0.0,4.3,78,0.00,,,0.00,WUHU216HW,2013-12-25 15:58:00,
2013-12-25 09:59:00,35.5,29.3,30.29,WNW,293,0.9,4.3,78,0.00,,,0.00,WUHU216HW,2013-12-25 15:59:00,
2013-12-25 10:00:00,35.5,29.3,30.29,WNW,293,1.8,4.3,78,0.00,,,0.00,WUHU216HW,2013-12-25 16:00:00,
2013-12-25 10:01:00,35.6,29.4,30.29,SSW,203,0.0,4.3,78,0.00,,,0.00,WUHU216HW,2013-12-25 16:01:00,
2013-12-25 10:03:00,35.6,29.4,30.29,SSW,203,1.8,4.3,78,0.00,,,0.00,WUHU216HW,2013-12-25 16:03:00,
2013-12-25 10:04:00,35.6,29.4,30.29,SSW,203,0.2,4.3,78,0.00,,,0.00,WUHU216HW,2013-12-25 16:04:00,
2013-12-25 10:05:00,35.6,29.1,30.29,SW,225,0.0,4.3,77,0.00,,,0.00,WUHU216HW,2013-12-25 16:05:00,
2013-12-25 10:06:00,35.6,29.1,30.29,NNE,23,1.3,4.3,77,0.00,,,0.00,WUHU216HW,2013-12-25 16:06:00,
2013-12-25 10:09:00,35.6,28.8,30.30,WNW,293,0.0,4.3,76,0.00,,,0.00,WUHU216HW,2013-12-25 16:09:00,
2013-12-25 10:10:00,35.6,29.1,30.30,WSW,248,0.4,4.3,77,0.00,,,0.00,WUHU216HW,2013-12-25 16:10:00,
2013-12-25 10:11:00,35.6,29.1,30.29,WNW,293,4.0,5.0,77,0.00,,,0.00,WUHU216HW,2013-12-25 16:11:00,
2013-12-25 10:14:00,36.4,29.5,30.29,SW,225,0.4,5.0,76,0.00,,,0.00,WUHU216HW,2013-12-25 16:14:00,
2013-12-25 10:15:00,36.4,29.5,30.29,WSW,248,0.9,5.0,76,0.00,,,0.00,WUHU216HW,2013-12-25 16:15:00,
2013-12-25 10:16:00,36.4,29.5,30.30,SSW,203,0.9,5.0,76,0.00,,,0.00,WUHU216HW,2013-12-25 16:16:00,
2013-12-25 10:17:00,36.4,29.5,30.30,NNW,338,0.2,5.0,76,0.00,,,0.00,WUHU216HW,2013-12-25 16:17:00,
2013-12-25 10:20:00,36.4,29.5,30.30,SSW,203,0.2,5.0,76,0.00,,,0.00,WUHU216HW,2013-12-25 16:20:00,
2013-12-25 10:21:00,36.5,30.0,30.30,NW,315,0.0,5.0,77,0.00,,,0.00,WUHU216HW,2013-12-25 16:21:00,
2013-12-25 10:23:00,36.5,30.0,30.30,NW,315,0.0,4.3,77,0.00,,,0.00,WUHU216HW,2013-12-25 16:23:00,
2013-12-25 10:25:00,36.7,29.9,30.29,NW,315,0.0,3.1,76,0.00,,,0.00,WUHU216HW,2013-12-25 16:25:00,
2013-12-25 10:26:00,36.7,29.9,30.29,NW,315,0.0,3.1,76,0.00,,,0.00,WUHU216HW,2013-12-25 16:26:00,
2013-12-25 10:27:00,36.7,29.9,30.29,SW,225,1.8,3.1,76,0.00,,,0.00,WUHU216HW,2013-12-25 16:27:00,
2013-12-25 10:29:00,36.5,29.7,30.29,SSE,158,0.0,3.4,76,0.00,,,0.00,WUHU216HW,2013-12-25 16:29:00,
2013-12-25 10:30:00,36.5,29.7,30.29,NW,315,0.0,3.4,76,0.00,,,0.00,WUHU216HW,2013-12-25 16:30:00,
2013-12-25 10:31:00,36.5,29.3,30.30,West,270,1.6,3.4,75,0.00,,,0.00,WUHU216HW,2013-12-25 16:31:00,
2013-12-25 10:32:00,36.5,29.0,30.30,ESE,113,0.2,3.4,74,0.00,,,0.00,WUHU216HW,2013-12-25 16:32:00,
2013-12-25 10:34:00,36.9,29.3,30.30,West,270,1.6,4.8,74,0.00,,,0.00,WUHU216HW,2013-12-25 16:34:00,
2013-12-25 10:35:00,36.9,29.3,30.30,NNW,338,2.5,4.8,74,0.00,,,0.00,WUHU216HW,2013-12-25 16:35:00,
2013-12-25 10:36:00,37.1,29.9,30.30,NW,315,0.0,4.8,75,0.00,,,0.00,WUHU216HW,2013-12-25 16:36:00,
2013-12-25 10:37:00,37.1,29.9,30.30,NNW,338,0.0,4.8,75,0.00,,,0.00,WUHU216HW,2013-12-25 16:37:00,
2013-12-25 10:40:00,37.6,30.4,30.30,SSW,203,1.6,4.8,75,0.00,,,0.00,WUHU216HW,2013-12-25 16:40:00,
2013-12-25 10:41:00,37.6,30.1,30.29,South,180,4.9,6.1,74,0.00,,,0.00,WUHU216HW,2013-12-25 16:41:00,
2013-12-25 10:42:00,37.6,30.1,30.29,South,180,5.4,6.8,74,0.00,,,0.00,WUHU216HW,2013-12-25 16:42:00,
2013-12-25 10:45:00,37.1,29.5,30.29,West,270,2.2,6.8,74,0.00,,,0.00,WUHU216HW,2013-12-25 16:45:00,
2013-12-25 10:46:00,37.1,29.5,30.29,WSW,248,0.0,6.8,74,0.00,,,0.00,WUHU216HW,2013-12-25 16:46:00,
2013-12-25 10:47:00,37.1,29.5,30.29,SSW,203,5.1,6.8,74,0.00,,,0.00,WUHU216HW,2013-12-25 16:47:00,
2013-12-25 10:50:00,37.4,29.9,30.29,SSE,158,4.0,6.8,74,0.00,,,0.00,WUHU216HW,2013-12-25 16:50:00,
2013-12-25 10:51:00,37.3,29.7,30.29,SSW,203,2.9,7.5,74,0.00,,,0.00,WUHU216HW,2013-12-25 16:51:00,
2013-12-25 10:52:00,37.4,29.6,30.29,SW,225,5.4,7.5,73,0.00,,,0.00,WUHU216HW,2013-12-25 16:52:00,
2013-12-25 10:53:00,37.4,29.6,30.29,WSW,248,2.9,7.5,73,0.00,,,0.00,WUHU216HW,2013-12-25 16:53:00,
2013-12-25 10:55:00,37.6,29.8,30.29,SW,225,2.5,7.5,73,0.00,,,0.00,WUHU216HW,2013-12-25 16:55:00,
2013-12-25 10:56:00,37.6,29.8,30.29,WSW,248,4.0,7.5,73,0.00,,,0.00,WUHU216HW,2013-12-25 16:56:00,
2013-12-25 10:57:00,37.6,29.8,30.29,SSW,203,3.1,7.5,73,0.00,,,0.00,WUHU216HW,2013-12-25 16:57:00,
2013-12-25 10:58:00,37.6,29.8,30.29,SW,225,5.1,7.5,73,0.00,,,0.00,WUHU216HW,2013-12-25 16:58:00,
2013-12-25 11:00:00,37.8,30.0,30.29,West,270,0.4,7.5,73,0.00,,,0.00,WUHU216HW,2013-12-25 17:00:00,
2013-12-25 11:01:00,37.8,30.0,30.29,NW,315,1.1,7.5,73,0.00,,,0.00,WUHU216HW,2013-12-25 17:01:00,
2013-12-25 11:02:00,37.8,30.0,30.29,SSW,203,3.4,7.5,73,0.00,,,0.00,WUHU216HW,2013-12-25 17:02:00,
2013-12-25 11:03:00,37.8,30.0,30.29,SSW,203,3.4,7.5,73,0.00,,,0.00,WUHU216HW,2013-12-25 17:03:00,
2013-12-25 11:04:00,38.0,30.1,30.29,SSW,203,1.8,7.5,73,0.00,,,0.00,WUHU216HW,2013-12-25 17:04:00,
2013-12-25 11:06:00,37.8,29.6,30.29,SSW,203,4.0,7.5,72,0.00,,,0.00,WUHU216HW,2013-12-25 17:06:00,
2013-12-25 11:07:00,37.8,29.6,30.29,South,180,3.4,7.5,72,0.00,,,0.00,WUHU216HW,2013-12-25 17:07:00,
2013-12-25 11:10:00,37.8,29.3,30.29,WNW,293,3.6,7.0,71,0.00,,,0.00,WUHU216HW,2013-12-25 17:10:00,
2013-12-25 11:12:00,37.8,29.6,30.29,NNW,338,3.1,7.0,72,0.00,,,0.00,WUHU216HW,2013-12-25 17:12:00,
2013-12-25 11:13:00,37.8,29.6,30.29,NNW,338,3.1,7.0,72,0.00,,,0.00,WUHU216HW,2013-12-25 17:13:00,
2013-12-25 11:16:00,37.8,29.6,30.29,SW,225,5.8,7.3,72,0.00,,,0.00,WUHU216HW,2013-12-25 17:16:00,
2013-12-25 11:17:00,37.8,29.6,30.29,WNW,293,0.2,7.3,72,0.00,,,0.00,WUHU216HW,2013-12-25 17:17:00,
2013-12-25 11:18:00,37.8,29.6,30.29,SW,225,0.4,7.3,72,0.00,,,0.00,WUHU216HW,2013-12-25 17:18:00,
2013-12-25 11:19:00,37.8,29.6,30.29,WSW,248,0.0,7.3,72,0.00,,,0.00,WUHU216HW,2013-12-25 17:19:00,
2013-12-25 11:21:00,38.2,30.0,30.28,SW,225,0.2,7.3,72,0.00,,,0.00,WUHU216HW,2013-12-25 17:21:00,
2013-12-25 11:23:00,38.3,30.1,30.28,SSW,203,4.0,7.3,72,0.00,,,0.00,WUHU216HW,2013-12-25 17:23:00,
2013-12-25 11:24:00,38.3,30.1,30.28,SSW,203,5.4,7.9,72,0.00,,,0.00,WUHU216HW,2013-12-25 17:24:00,
2013-12-25 11:26:00,38.5,30.0,30.28,South,180,4.3,7.9,71,0.00,,,0.00,WUHU216HW,2013-12-25 17:26:00,
2013-12-25 11:27:00,38.5,30.0,30.28,WSW,248,4.3,8.4,71,0.00,,,0.00,WUHU216HW,2013-12-25 17:27:00,
2013-12-25 11:28:00,38.5,30.0,30.28,WNW,293,1.8,8.4,71,0.00,,,0.00,WUHU216HW,2013-12-25 17:28:00,
2013-12-25 11:29:00,38.5,30.0,30.28,SW,225,4.0,8.4,71,0.00,,,0.00,WUHU216HW,2013-12-25 17:29:00,
2013-12-25 11:31:00,38.5,30.0,30.27,West,270,0.4,8.4,71,0.00,,,0.00,WUHU216HW,2013-12-25 17:31:00,
2013-12-25 11:33:00,38.5,30.0,30.27,SW,225,4.0,8.4,71,0.00,,,0.00,WUHU216HW,2013-12-25 17:33:00,
2013-12-25 11:34:00,38.5,30.0,30.27,SW,225,2.9,8.4,71,0.00,,,0.00,WUHU216HW,2013-12-25 17:34:00,
2013-12-25 11:36:00,38.7,30.1,30.28,SSW,203,1.8,8.4,71,0.00,,,0.00,WUHU216HW,2013-12-25 17:36:00,
2013-12-25 11:38:00,38.7,30.1,30.27,SW,225,1.1,7.3,71,0.00,,,0.00,WUHU216HW,2013-12-25 17:38:00,
2013-12-25 11:39:00,38.7,30.1,30.27,South,180,2.0,7.3,71,0.00,,,0.00,WUHU216HW,2013-12-25 17:39:00,
2013-12-25 11:41:00,38.9,29.9,30.27,SW,225,1.3,5.0,70,0.00,,,0.00,WUHU216HW,2013-12-25 17:41:00,
2013-12-25 11:43:00,39.1,30.1,30.27,SW,225,2.0,4.5,70,0.00,,,0.00,WUHU216HW,2013-12-25 17:43:00,
2013-12-25 11:44:00,39.1,30.1,30.27,WNW,293,1.6,4.5,70,0.00,,,0.00,WUHU216HW,2013-12-25 17:44:00,
2013-12-25 11:46:00,39.1,30.1,30.27,WNW,293,3.1,6.1,70,0.00,,,0.00,WUHU216HW,2013-12-25 17:46:00,
2013-12-25 11:48:00,39.1,30.1,30.27,SW,225,1.1,6.1,70,0.00,,,0.00,WUHU216HW,2013-12-25 17:48:00,
2013-12-25 11:49:00,39.2,30.2,30.27,WNW,293,1.3,6.1,70,0.00,,,0.00,WUHU216HW,2013-12-25 17:49:00,
2013-12-25 11:50:00,39.2,30.2,30.27,WSW,248,0.0,6.1,70,0.00,,,0.00,WUHU216HW,2013-12-25 17:50:00,
2013-12-25 11:51:00,39.2,30.2,30.27,West,270,0.4,6.1,70,0.00,,,0.00,WUHU216HW,2013-12-25 17:51:00,
2013-12-25 11:54:00,39.6,30.6,30.27,NW,315,1.6,6.1,70,0.00,,,0.00,WUHU216HW,2013-12-25 17:54:00,
2013-12-25 11:55:00,39.8,30.4,30.27,NW,315,2.5,6.1,69,0.00,,,0.00,WUHU216HW,2013-12-25 17:55:00,
2013-12-25 11:56:00,40.0,30.6,30.26,SSW,203,1.6,4.3,69,0.00,,,0.00,WUHU216HW,2013-12-25 17:56:00,
2013-12-25 11:59:00,40.0,30.3,30.26,SSW,203,3.1,5.4,68,0.01,,,0.01,WUHU216HW,2013-12-25 17:59:00,
2013-12-25 12:00:00,40.0,30.3,30.26,SW,225,4.7,5.9,68,0.01,,,0.01,WUHU216HW,2013-12-25 18:00:00,
2013-12-25 12:02:00,40.0,29.8,30.26,WNW,293,0.9,5.9,67,0.01,,,0.01,WUHU216HW,2013-12-25 18:02:00,
2013-12-25 12:04:00,40.0,30.3,30.27,WSW,248,1.6,5.9,68,0.01,,,0.01,WUHU216HW,2013-12-25 18:04:00,
2013-12-25 12:05:00,40.0,30.3,30.27,ENE,68,0.9,5.9,68,0.01,,,0.01,WUHU216HW,2013-12-25 18:05:00,
2013-12-25 12:07:00,40.0,30.3,30.27,WNW,293,0.7,5.9,68,0.01,,,0.01,WUHU216HW,2013-12-25 18:07:00,
2013-12-25 12:09:00,40.1,30.4,30.26,NW,315,3.4,5.9,68,0.01,,,0.01,WUHU216HW,2013-12-25 18:09:00,
2013-12-25 12:10:00,40.1,30.4,30.26,SSW,203,2.9,5.9,68,0.01,,,0.01,WUHU216HW,2013-12-25 18:10:00,
2013-12-25 12:11:00,40.3,30.6,30.26,South,180,1.1,4.8,68,0.02,,,0.02,WUHU216HW,2013-12-25 18:11:00,
2013-12-25 12:12:00,40.3,30.6,30.26,SW,225,0.0,4.8,68,0.02,,,0.02,WUHU216HW,2013-12-25 18:12:00,
2013-12-25 12:14:00,40.3,30.6,30.26,SSW,203,3.4,7.5,68,0.02,,,0.02,WUHU216HW,2013-12-25 18:14:00,
2013-12-25 12:15:00,40.3,30.6,30.26,SSW,203,3.8,7.5,68,0.02,,,0.02,WUHU216HW,2013-12-25 18:15:00,
2013-12-25 12:17:00,40.1,30.0,30.26,SW,225,1.6,7.5,67,0.02,,,0.02,WUHU216HW,2013-12-25 18:17:00,
2013-12-25 12:20:00,40.3,30.2,30.26,NW,315,1.1,7.5,67,0.03,,,0.03,WUHU216HW,2013-12-25 18:20:00,
2013-12-25 12:22:00,40.5,30.3,30.26,SW,225,1.3,7.5,67,0.03,,,0.03,WUHU216HW,2013-12-25 18:22:00,
2013-12-25 12:25:00,40.7,30.5,30.26,SSW,203,0.0,7.0,67,0.04,,,0.04,WUHU216HW,2013-12-25 18:25:00,
2013-12-25 12:26:00,40.9,30.7,30.26,SSW,203,0.0,7.0,67,0.04,,,0.04,WUHU216HW,2013-12-25 18:26:00,
2013-12-25 12:28:00,41.0,30.9,30.26,SSW,203,5.6,7.0,67,0.04,,,0.04,WUHU216HW,2013-12-25 18:28:00,
2013-12-25 12:30:00,41.0,30.9,30.25,NW,315,3.8,7.0,67,0.05,,,0.05,WUHU216HW,2013-12-25 18:30:00,
2013-12-25 12:31:00,41.0,30.9,30.25,SSW,203,6.0,7.5,67,0.05,,,0.05,WUHU216HW,2013-12-25 18:31:00,
2013-12-25 12:33:00,40.9,30.7,30.26,SW,225,2.2,7.5,67,0.06,,,0.06,WUHU216HW,2013-12-25 18:33:00,
2013-12-25 12:34:00,40.9,30.7,30.26,SW,225,2.2,7.5,67,0.06,,,0.06,WUHU216HW,2013-12-25 18:34:00,
2013-12-25 12:35:00,40.9,30.7,30.25,SSW,203,1.8,7.5,67,0.06,,,0.06,WUHU216HW,2013-12-25 18:35:00,
2013-12-25 12:36:00,40.9,30.7,30.25,SSW,203,1.8,7.5,67,0.06,,,0.06,WUHU216HW,2013-12-25 18:36:00,
2013-12-25 12:38:00,41.2,31.1,30.25,SSW,203,1.8,7.5,67,0.07,,,0.07,WUHU216HW,2013-12-25 18:38:00,
2013-12-25 12:39:00,41.2,31.1,30.25,SW,225,2.2,7.5,67,0.07,,,0.07,WUHU216HW,2013-12-25 18:39:00,
2013-12-25 12:41:00,41.4,31.2,30.25,SW,225,2.5,7.5,67,0.08,,,0.08,WUHU216HW,2013-12-25 18:41:00,
2013-12-25 12:43:00,41.6,31.4,30.25,NNE,23,0.4,5.0,67,0.08,,,0.08,WUHU216HW,2013-12-25 18:43:00,
2013-12-25 12:44:00,41.8,31.6,30.25,SSW,203,0.0,5.0,67,0.09,,,0.09,WUHU216HW,2013-12-25 18:44:00,
2013-12-25 12:46:00,41.8,31.6,30.25,NW,315,0.0,5.0,67,0.10,,,0.10,WUHU216HW,2013-12-25 18:46:00,
2013-12-25 12:47:00,41.9,31.8,30.25,WSW,248,0.0,5.0,67,0.10,,,0.10,WUHU216HW,2013-12-25 18:47:00,
2013-12-25 12:49:00,42.1,32.3,30.25,NNW,338,0.7,5.0,68,0.10,,,0.10,WUHU216HW,2013-12-25 18:49:00,
2013-12-25 12:51:00,42.5,32.7,30.25,WNW,293,2.2,4.8,68,0.11,,,0.11,WUHU216HW,2013-12-25 18:51:00,
2013-12-25 12:52:00,42.5,32.3,30.25,WNW,293,2.2,4.8,67,0.11,,,0.11,WUHU216HW,2013-12-25 18:52:00,
2013-12-25 12:54:00,42.5,32.0,30.25,WNW,293,2.2,4.8,66,0.12,,,0.12,WUHU216HW,2013-12-25 18:54:00,
2013-12-25 12:55:00,42.3,31.8,30.25,North,0,0.0,4.8,66,0.13,,,0.12,WUHU216HW,2013-12-25 18:55:00,
2013-12-25 12:56:00,42.1,31.6,30.25,NW,315,1.3,4.3,66,0.12,,,0.13,WUHU216HW,2013-12-25 18:56:00,
2013-12-25 12:57:00,42.1,31.6,30.25,SSW,203,1.1,3.1,66,0.12,,,0.13,WUHU216HW,2013-12-25 18:57:00,
2013-12-25 12:59:00,42.1,31.6,30.25,SSE,158,2.0,5.0,66,0.12,,,0.13,WUHU216HW,2013-12-25 18:59:00,
2013-12-25 13:00:00,42.1,31.1,30.25,West,270,3.4,5.4,65,0.13,,,0.14,WUHU216HW,2013-12-25 19:00:00,
2013-12-25 13:01:00,41.9,31.4,30.25,SSW,203,3.1,5.9,66,0.13,,,0.14,WUHU216HW,2013-12-25 19:01:00,
2013-12-25 13:02:00,41.9,31.0,30.25,SSW,203,3.1,5.9,65,0.13,,,0.14,WUHU216HW,2013-12-25 19:02:00,
2013-12-25 13:03:00,41.9,31.0,30.25,SSW,203,2.2,5.9,65,0.14,,,0.15,WUHU216HW,2013-12-25 19:03:00,
2013-12-25 13:05:00,41.8,30.9,30.25,South,180,0.0,6.8,65,0.13,,,0.15,WUHU216HW,2013-12-25 19:05:00,
2013-12-25 13:07:00,41.9,31.4,30.24,WNW,293,2.0,6.8,66,0.14,,,0.16,WUHU216HW,2013-12-25 19:07:00,
2013-12-25 13:08:00,41.9,31.0,30.24,NNW,338,2.0,6.8,65,0.14,,,0.16,WUHU216HW,2013-12-25 19:08:00,
2013-12-25 13:10:00,41.9,31.0,30.24,SSW,203,2.5,6.8,65,0.15,,,0.17,WUHU216HW,2013-12-25 19:10:00,
2013-12-25 13:11:00,41.9,31.0,30.24,SSW,203,2.5,6.8,65,0.15,,,0.17,WUHU216HW,2013-12-25 19:11:00,
2013-12-25 13:12:00,41.9,31.4,30.24,West,270,3.4,6.8,66,0.14,,,0.17,WUHU216HW,2013-12-25 19:12:00,
2013-12-25 13:13:00,41.9,31.4,30.24,West,270,3.4,6.8,66,0.14,,,0.17,WUHU216HW,2013-12-25 19:13:00,
2013-12-25 13:16:00,42.3,31.3,30.24,SSW,203,1.8,5.9,65,0.15,,,0.18,WUHU216HW,2013-12-25 19:16:00,
2013-12-25 13:17:00,42.3,31.3,30.24,WSW,248,1.6,7.3,65,0.16,,,0.20,WUHU216HW,2013-12-25 19:17:00,
2013-12-25 13:18:00,42.1,31.1,30.24,SW,225,2.5,7.3,65,0.16,,,0.20,WUHU216HW,2013-12-25 19:18:00,
2013-12-25 13:21:00,42.1,30.8,30.24,NNW,338,6.5,9.5,64,0.16,,,0.20,WUHU216HW,2013-12-25 19:21:00,
2013-12-25 13:22:00,41.8,30.4,30.24,NNW,338,1.1,9.5,64,0.16,,,0.20,WUHU216HW,2013-12-25 19:22:00,
2013-12-25 13:23:00,41.8,30.4,30.24,West,270,2.5,9.5,64,0.16,,,0.20,WUHU216HW,2013-12-25 19:23:00,
2013-12-25 13:26:00,41.4,30.2,30.25,NW,315,3.4,9.5,64,0.15,,,0.21,WUHU216HW,2013-12-25 19:26:00,
2013-12-25 13:27:00,41.6,29.9,30.25,NW,315,3.4,9.5,63,0.15,,,0.21,WUHU216HW,2013-12-25 19:27:00,
2013-12-25 13:28:00,41.4,29.3,30.25,West,270,5.6,9.5,62,0.15,,,0.21,WUHU216HW,2013-12-25 19:28:00,
2013-12-25 13:29:00,41.4,29.7,30.25,WNW,293,0.0,9.5,63,0.15,,,0.21,WUHU216HW,2013-12-25 19:29:00,
2013-12-25 13:32:00,41.4,30.5,30.24,NW,315,2.2,8.1,65,0.16,,,0.22,WUHU216HW,2013-12-25 19:32:00,
2013-12-25 13:33:00,41.6,30.7,30.25,WNW,293,3.4,8.1,65,0.14,,,0.22,WUHU216HW,2013-12-25 19:33:00,
2013-12-25 13:34:00,41.6,29.9,30.25,West,270,7.2,9.0,63,0.15,,,0.23,WUHU216HW,2013-12-25 19:34:00,
2013-12-25 13:37:00,41.4,30.5,30.25,SSE,158,0.2,9.0,65,0.15,,,0.25,WUHU216HW,2013-12-25 19:37:00,
2013-12-25 13:38:00,41.4,30.5,30.25,West,270,0.0,9.0,65,0.15,,,0.25,WUHU216HW,2013-12-25 19:38:00,
2013-12-25 13:39:00,41.4,29.7,30.25,WNW,293,1.6,9.0,63,0.15,,,0.25,WUHU216HW,2013-12-25 19:39:00,
2013-12-25 13:43:00,41.4,30.2,30.25,North,0,0.7,9.0,64,0.15,,,0.25,WUHU216HW,2013-12-25 19:43:00,
2013-12-25 13:44:00,41.4,30.2,30.24,WSW,248,0.0,9.0,64,0.15,,,0.25,WUHU216HW,2013-12-25 19:44:00,
2013-12-25 13:45:00,41.6,30.7,30.25,NW,315,0.0,7.5,65,0.15,,,0.27,WUHU216HW,2013-12-25 19:45:00,
2013-12-25 13:48:00,41.9,31.0,30.25,WNW,293,2.9,7.5,65,0.15,,,0.27,WUHU216HW,2013-12-25 19:48:00,
2013-12-25 13:49:00,41.9,31.0,30.25,North,0,4.0,6.8,65,0.13,,,0.27,WUHU216HW,2013-12-25 19:49:00,
2013-12-25 13:50:00,41.9,31.0,30.25,WSW,248,2.5,5.6,65,0.13,,,0.27,WUHU216HW,2013-12-25 19:50:00,
2013-12-25 13:53:00,41.9,30.3,30.24,WSW,248,2.5,5.0,63,0.12,,,0.27,WUHU216HW,2013-12-25 19:53:00,
2013-12-25 13:54:00,41.8,30.1,30.24,West,270,4.0,10.4,63,0.12,,,0.27,WUHU216HW,2013-12-25 19:54:00,
2013-12-25 13:55:00,41.6,29.5,30.24,NW,315,3.8,10.4,62,0.13,,,0.27,WUHU216HW,2013-12-25 19:55:00,
2013-12-25 13:56:00,41.4,29.3,30.24,WNW,293,4.7,10.4,62,0.13,,,0.27,WUHU216HW,2013-12-25 19:56:00,
2013-12-25 13:58:00,41.4,29.7,30.24,NW,315,1.3,10.4,63,0.14,,,0.27,WUHU216HW,2013-12-25 19:58:00,
2013-12-25 13:59:00,41.4,29.7,30.24,West,270,2.7,10.4,63,0.14,,,0.29,WUHU216HW,2013-12-25 19:59:00,
2013-12-25 14:00:00,41.2,29.5,30.24,West,270,0.0,10.4,63,0.14,,,0.29,WUHU216HW,2013-12-25 20:00:00,
2013-12-25 14:01:00,41.4,29.7,30.24,WNW,293,4.0,10.4,63,0.13,,,0.29,WUHU216HW,2013-12-25 20:01:00,
2013-12-25 14:03:00,41.0,29.4,30.24,WNW,293,1.8,7.0,63,0.14,,,0.29,WUHU216HW,2013-12-25 20:03:00,
2013-12-25 14:04:00,41.2,29.5,30.24,NNE,23,0.4,7.0,63,0.14,,,0.29,WUHU216HW,2013-12-25 20:04:00,
2013-12-25 14:05:00,41.0,29.4,30.24,WSW,248,2.2,7.0,63,0.13,,,0.29,WUHU216HW,2013-12-25 20:05:00,
2013-12-25 14:07:00,41.0,29.8,30.24,West,270,0.7,6.4,64,0.13,,,0.29,WUHU216HW,2013-12-25 20:07:00,
2013-12-25 14:09:00,41.0,29.8,30.24,NW,315,5.6,8.6,64,0.12,,,0.29,WUHU216HW,2013-12-25 20:09:00,
2013-12-25 14:10:00,41.2,30.0,30.24,West,270,0.4,8.6,64,0.12,,,0.29,WUHU216HW,2013-12-25 20:10:00,
2013-12-25 14:11:00,41.2,30.0,30.24,West,270,4.5,8.6,64,0.12,,,0.29,WUHU216HW,2013-12-25 20:11:00,
2013-12-25 14:12:00,41.4,30.2,30.24,SW,225,0.4,8.6,64,0.12,,,0.31,WUHU216HW,2013-12-25 20:12:00,
2013-12-25 14:14:00,41.4,30.2,30.24,WNW,293,2.0,8.6,64,0.12,,,0.31,WUHU216HW,2013-12-25 20:14:00,
2013-12-25 14:15:00,41.4,29.7,30.24,WNW,293,8.5,10.6,63,0.12,,,0.31,WUHU216HW,2013-12-25 20:15:00,
2013-12-25 14:16:00,41.4,29.7,30.24,WNW,293,2.0,10.6,63,0.12,,,0.31,WUHU216HW,2013-12-25 20:16:00,
2013-12-25 14:18:00,41.4,29.7,30.24,NW,315,4.0,10.6,63,0.10,,,0.31,WUHU216HW,2013-12-25 20:18:00,
2013-12-25 14:19:00,41.4,29.7,30.24,West,270,4.0,10.6,63,0.10,,,0.31,WUHU216HW,2013-12-25 20:19:00,
2013-12-25 14:20:00,41.4,29.7,30.24,WNW,293,4.7,10.6,63,0.10,,,0.31,WUHU216HW,2013-12-25 20:20:00,
2013-12-25 14:21:00,41.2,29.5,30.24,WSW,248,1.8,10.6,63,0.09,,,0.31,WUHU216HW,2013-12-25 20:21:00,
2013-12-25 14:24:00,41.4,29.7,30.24,West,270,3.6,10.6,63,0.09,,,0.31,WUHU216HW,2013-12-25 20:24:00,
2013-12-25 14:25:00,41.4,29.7,30.24,WNW,293,7.2,9.0,63,0.09,,,0.31,WUHU216HW,2013-12-25 20:25:00,
2013-12-25 14:26:00,41.4,29.7,30.25,NNW,338,0.4,9.0,63,0.09,,,0.31,WUHU216HW,2013-12-25 20:26:00,
2013-12-25 14:27:00,41.4,29.7,30.25,WNW,293,0.4,9.0,63,0.10,,,0.32,WUHU216HW,2013-12-25 20:27:00,
2013-12-25 14:29:00,41.4,29.7,30.24,NNW,338,1.1,9.0,63,0.09,,,0.32,WUHU216HW,2013-12-25 20:29:00,
2013-12-25 14:30:00,41.4,29.7,30.24,NW,315,4.7,9.0,63,0.09,,,0.32,WUHU216HW,2013-12-25 20:30:00,
2013-12-25 14:31:00,41.4,29.7,30.24,WSW,248,2.5,9.0,63,0.09,,,0.32,WUHU216HW,2013-12-25 20:31:00,
2013-12-25 14:32:00,41.4,29.7,30.24,North,0,0.7,9.0,63,0.09,,,0.32,WUHU216HW,2013-12-25 20:32:00,
2013-12-25 14:33:00,41.4,29.7,30.25,NW,315,3.6,9.0,63,0.07,,,0.32,WUHU216HW,2013-12-25 20:33:00,
2013-12-25 14:34:00,41.4,29.7,30.24,West,270,3.4,9.0,63,0.07,,,0.32,WUHU216HW,2013-12-25 20:34:00,
2013-12-25 14:35:00,41.4,29.7,30.24,North,0,3.4,9.0,63,0.07,,,0.32,WUHU216HW,2013-12-25 20:35:00,
2013-12-25 14:36:00,41.4,29.7,30.24,West,270,0.9,7.0,63,0.07,,,0.32,WUHU216HW,2013-12-25 20:36:00,
2013-12-25 14:37:00,41.6,29.9,30.24,NW,315,1.8,7.0,63,0.07,,,0.32,WUHU216HW,2013-12-25 20:37:00,
2013-12-25 14:38:00,41.6,29.9,30.24,NNW,338,2.2,7.0,63,0.07,,,0.32,WUHU216HW,2013-12-25 20:38:00,
2013-12-25 14:40:00,41.8,30.4,30.24,WNW,293,1.1,5.9,64,0.08,,,0.33,WUHU216HW,2013-12-25 20:40:00,
2013-12-25 14:41:00,41.9,30.6,30.24,WSW,248,4.5,7.0,64,0.07,,,0.33,WUHU216HW,2013-12-25 20:41:00,
2013-12-25 14:42:00,41.9,30.6,30.24,WNW,293,2.2,7.0,64,0.07,,,0.33,WUHU216HW,2013-12-25 20:42:00,
2013-12-25 14:43:00,42.1,30.0,30.24,North,0,1.6,7.0,62,0.07,,,0.33,WUHU216HW,2013-12-25 20:43:00,
2013-12-25 14:45:00,42.1,30.4,30.24,WNW,293,3.6,7.0,63,0.06,,,0.33,WUHU216HW,2013-12-25 20:45:00,
2013-12-25 14:46:00,42.1,30.0,30.24,WSW,248,5.1,7.0,62,0.06,,,0.33,WUHU216HW,2013-12-25 20:46:00,
2013-12-25 14:47:00,42.1,30.4,30.24,NW,315,0.4,7.0,63,0.06,,,0.33,WUHU216HW,2013-12-25 20:47:00,
2013-12-25 14:48:00,42.1,30.0,30.25,WNW,293,2.7,7.0,62,0.06,,,0.33,WUHU216HW,2013-12-25 20:48:00,
2013-12-25 14:50:00,41.9,30.3,30.24,NW,315,2.2,7.0,63,0.06,,,0.33,WUHU216HW,2013-12-25 20:50:00,
2013-12-25 14:51:00,41.9,29.4,30.24,WNW,293,2.7,6.4,61,0.06,,,0.33,WUHU216HW,2013-12-25 20:51:00,
2013-12-25 14:52:00,41.8,29.7,30.25,NNW,338,1.3,6.4,62,0.05,,,0.33,WUHU216HW,2013-12-25 20:52:00,
2013-12-25 14:53:00,41.8,29.7,30.25,West,270,2.0,6.4,62,0.05,,,0.33,WUHU216HW,2013-12-25 20:53:00,
2013-12-25 14:54:00,41.8,29.7,30.25,North,0,1.1,6.4,62,0.05,,,0.33,WUHU216HW,2013-12-25 20:54:00,
2013-12-25 14:55:00,41.6,29.9,30.25,WNW,293,1.8,6.4,63,0.05,,,0.33,WUHU216HW,2013-12-25 20:55:00,
2013-12-25 14:56:00,41.6,29.9,30.25,NW,315,0.4,4.8,63,0.05,,,0.33,WUHU216HW,2013-12-25 20:56:00,
2013-12-25 14:57:00,41.8,30.1,30.25,North,0,3.1,5.0,63,0.04,,,0.33,WUHU216HW,2013-12-25 20:57:00,
2013-12-25 14:58:00,41.6,29.5,30.25,North,0,1.8,5.0,62,0.04,,,0.33,WUHU216HW,2013-12-25 20:58:00,
2013-12-25 14:59:00,41.6,29.5,30.25,NNW,338,1.6,5.0,62,0.04,,,0.33,WUHU216HW,2013-12-25 20:59:00,
2013-12-25 15:00:00,41.8,30.1,30.25,WSW,248,2.0,5.0,63,0.04,,,0.34,WUHU216HW,2013-12-25 21:00:00,
2013-12-25 15:01:00,41.8,30.1,30.24,NNW,338,3.6,5.0,63,0.04,,,0.34,WUHU216HW,2013-12-25 21:01:00,
2013-12-25 15:02:00,41.9,30.3,30.25,WNW,293,2.0,5.0,63,0.04,,,0.34,WUHU216HW,2013-12-25 21:02:00,
2013-12-25 15:04:00,41.9,30.3,30.25,NW,315,2.7,5.0,63,0.04,,,0.34,WUHU216HW,2013-12-25 21:04:00,
2013-12-25 15:05:00,42.1,30.4,30.25,West,270,3.8,5.0,63,0.04,,,0.34,WUHU216HW,2013-12-25 21:05:00,
2013-12-25 15:06:00,42.1,30.4,30.25,WNW,293,0.2,5.0,63,0.04,,,0.34,WUHU216HW,2013-12-25 21:06:00,
2013-12-25 15:08:00,42.1,30.4,30.25,NW,315,3.1,4.8,63,0.04,,,0.34,WUHU216HW,2013-12-25 21:08:00,
2013-12-25 15:09:00,42.1,30.4,30.25,West,270,1.6,5.0,63,0.03,,,0.34,WUHU216HW,2013-12-25 21:09:00,
2013-12-25 15:10:00,42.1,30.4,30.25,NW,315,1.3,5.0,63,0.03,,,0.34,WUHU216HW,2013-12-25 21:10:00,
2013-12-25 15:12:00,42.1,30.4,30.25,SSW,203,0.0,5.0,63,0.03,,,0.34,WUHU216HW,2013-12-25 21:12:00,
2013-12-25 15:13:00,42.1,30.4,30.25,NW,315,0.0,5.0,63,0.03,,,0.34,WUHU216HW,2013-12-25 21:13:00,
2013-12-25 15:14:00,42.1,30.4,30.26,NNW,338,0.0,5.0,63,0.03,,,0.34,WUHU216HW,2013-12-25 21:14:00,
2013-12-25 15:15:00,42.1,30.4,30.26,NNW,338,0.0,5.0,63,0.03,,,0.34,WUHU216HW,2013-12-25 21:15:00,
2013-12-25 15:17:00,42.3,30.6,30.26,NW,315,1.1,5.0,63,0.03,,,0.34,WUHU216HW,2013-12-25 21:17:00,
2013-12-25 15:18:00,42.3,30.6,30.26,West,270,0.2,5.0,63,0.03,,,0.34,WUHU216HW,2013-12-25 21:18:00,
2013-12-25 15:20:00,42.5,31.2,30.26,North,0,0.7,2.8,64,0.03,,,0.34,WUHU216HW,2013-12-25 21:20:00,
2013-12-25 15:21:00,42.7,30.9,30.26,North,0,0.0,2.8,63,0.03,,,0.34,WUHU216HW,2013-12-25 21:21:00,
2013-12-25 15:22:00,42.7,30.5,30.26,NNW,338,0.0,2.8,62,0.03,,,0.34,WUHU216HW,2013-12-25 21:22:00,
2013-12-25 15:23:00,42.7,30.2,30.25,NNE,23,1.8,2.8,61,0.03,,,0.34,WUHU216HW,2013-12-25 21:23:00,
2013-12-25 15:25:00,42.5,30.0,30.26,NNW,338,0.0,2.8,61,0.02,,,0.34,WUHU216HW,2013-12-25 21:25:00,
2013-12-25 15:26:00,42.5,29.5,30.26,NW,315,2.7,9.0,60,0.02,,,0.34,WUHU216HW,2013-12-25 21:26:00,
2013-12-25 15:27:00,42.1,29.3,30.26,NNW,338,0.4,9.0,60,0.02,,,0.34,WUHU216HW,2013-12-25 21:27:00,
2013-12-25 15:29:00,42.1,29.6,30.26,NW,315,1.6,9.0,61,0.02,,,0.34,WUHU216HW,2013-12-25 21:29:00,
2013-12-25 15:30:00,42.1,29.3,30.26,NW,315,2.0,9.0,60,0.02,,,0.34,WUHU216HW,2013-12-25 21:30:00,
2013-12-25 15:31:00,42.1,29.6,30.26,North,0,1.1,9.0,61,0.02,,,0.34,WUHU216HW,2013-12-25 21:31:00,
2013-12-25 15:32:00,41.9,29.4,30.26,North,0,0.0,9.0,61,0.02,,,0.34,WUHU216HW,2013-12-25 21:32:00,
2013-12-25 15:35:00,41.8,29.7,30.26,North,0,2.5,9.0,62,0.02,,,0.34,WUHU216HW,2013-12-25 21:35:00,
2013-12-25 15:36:00,41.8,29.3,30.26,North,0,1.8,4.3,61,0.02,,,0.34,WUHU216HW,2013-12-25 21:36:00,
2013-12-25 15:37:00,41.8,29.3,30.26,WNW,293,0.4,4.3,61,0.01,,,0.34,WUHU216HW,2013-12-25 21:37:00,
2013-12-25 15:40:00,41.4,29.0,30.26,North,0,0.7,5.0,61,0.01,,,0.34,WUHU216HW,2013-12-25 21:40:00,
2013-12-25 15:41:00,41.6,29.2,30.26,NNW,338,1.6,5.0,61,0.01,,,0.34,WUHU216HW,2013-12-25 21:41:00,
2013-12-25 15:42:00,41.4,29.3,30.26,North,0,4.5,5.6,62,0.01,,,0.34,WUHU216HW,2013-12-25 21:42:00,
2013-12-25 15:43:00,41.4,29.3,30.26,NW,315,3.4,5.6,62,0.01,,,0.34,WUHU216HW,2013-12-25 21:43:00,
2013-12-25 15:45:00,41.4,29.0,30.26,NNW,338,5.1,6.4,61,0.02,,,0.34,WUHU216HW,2013-12-25 21:45:00,
2013-12-25 15:46:00,41.4,29.0,30.26,WNW,293,2.2,6.8,61,0.02,,,0.34,WUHU216HW,2013-12-25 21:46:00,
2013-12-25 15:47:00,41.4,29.3,30.26,NNW,338,4.5,6.8,62,0.02,,,0.34,WUHU216HW,2013-12-25 21:47:00,
2013-12-25 15:48:00,41.4,29.3,30.26,NW,315,2.2,6.8,62,0.02,,,0.34,WUHU216HW,2013-12-25 21:48:00,
2013-12-25 15:50:00,41.2,29.2,30.27,WNW,293,2.5,6.8,62,0.02,,,0.34,WUHU216HW,2013-12-25 21:50:00,
2013-12-25 15:51:00,41.2,29.5,30.27,NW,315,1.8,6.8,63,0.02,,,0.34,WUHU216HW,2013-12-25 21:51:00,
2013-12-25 15:52:00,41.2,29.2,30.27,NNW,338,1.3,6.8,62,0.02,,,0.34,WUHU216HW,2013-12-25 21:52:00,
2013-12-25 15:53:00,41.2,29.5,30.27,NW,315,2.2,6.8,63,0.02,,,0.34,WUHU216HW,2013-12-25 21:53:00,
2013-12-25 15:55:00,41.0,29.0,30.27,NNW,338,3.8,6.8,62,0.02,,,0.34,WUHU216HW,2013-12-25 21:55:00,
2013-12-25 15:56:00,41.2,29.2,30.27,NW,315,2.9,5.6,62,0.01,,,0.34,WUHU216HW,2013-12-25 21:56:00,
2013-12-25 15:57:00,41.0,29.0,30.27,WSW,248,2.0,5.6,62,0.01,,,0.34,WUHU216HW,2013-12-25 21:57:00,
2013-12-25 15:59:00,41.0,29.0,30.27,West,270,3.4,5.4,62,0.01,,,0.34,WUHU216HW,2013-12-25 21:59:00,
2013-12-25 16:00:00,40.9,29.3,30.27,NE,45,2.0,5.4,63,0.01,,,0.34,WUHU216HW,2013-12-25 22:00:00,
2013-12-25 16:01:00,40.9,29.3,30.27,West,270,0.9,5.4,63,0.01,,,0.34,WUHU216HW,2013-12-25 22:01:00,
2013-12-25 16:02:00,40.9,29.3,30.27,NW,315,2.5,5.4,63,0.01,,,0.34,WUHU216HW,2013-12-25 22:02:00,
2013-12-25 16:04:00,40.7,29.1,30.27,WNW,293,0.2,5.4,63,0.01,,,0.34,WUHU216HW,2013-12-25 22:04:00,
2013-12-25 16:06:00,40.7,29.1,30.27,NW,315,1.3,5.4,63,0.01,,,0.34,WUHU216HW,2013-12-25 22:06:00,
2013-12-25 16:07:00,40.7,29.1,30.27,WNW,293,2.5,5.4,63,0.01,,,0.34,WUHU216HW,2013-12-25 22:07:00,
2013-12-25 16:08:00,40.7,29.1,30.27,South,180,2.5,5.0,63,0.01,,,0.34,WUHU216HW,2013-12-25 22:08:00,
2013-12-25 16:09:00,40.7,29.1,30.27,NNW,338,1.8,5.0,63,0.01,,,0.34,WUHU216HW,2013-12-25 22:09:00,
2013-12-25 16:11:00,40.7,29.1,30.27,WNW,293,1.3,5.0,63,0.01,,,0.34,WUHU216HW,2013-12-25 22:11:00,
2013-12-25 16:12:00,40.7,29.1,30.27,North,0,1.1,5.9,63,0.01,,,0.34,WUHU216HW,2013-12-25 22:12:00,
2013-12-25 16:13:00,40.7,29.1,30.27,NNW,338,1.3,5.9,63,0.01,,,0.34,WUHU216HW,2013-12-25 22:13:00,
2013-12-25 16:15:00,40.5,28.9,30.27,NNW,338,3.4,5.9,63,0.01,,,0.34,WUHU216HW,2013-12-25 22:15:00,
2013-12-25 16:16:00,40.3,28.7,30.27,West,270,0.9,5.9,63,0.01,,,0.34,WUHU216HW,2013-12-25 22:16:00,
2013-12-25 16:17:00,40.5,28.9,30.27,NNW,338,1.6,5.9,63,0.01,,,0.34,WUHU216HW,2013-12-25 22:17:00,
2013-12-25 16:18:00,40.3,28.7,30.27,NNW,338,0.0,5.9,63,0.01,,,0.34,WUHU216HW,2013-12-25 22:18:00,
2013-12-25 16:20:00,40.1,28.9,30.27,WNW,293,0.0,5.9,64,0.01,,,0.34,WUHU216HW,2013-12-25 22:20:00,
2013-12-25 16:22:00,40.1,28.9,30.28,NW,315,0.0,5.0,64,0.01,,,0.34,WUHU216HW,2013-12-25 22:22:00,
2013-12-25 16:23:00,40.0,28.7,30.28,NW,315,1.8,5.0,64,0.01,,,0.34,WUHU216HW,2013-12-25 22:23:00,
2013-12-25 16:26:00,40.0,28.4,30.27,WNW,293,0.0,3.4,63,0.01,,,0.34,WUHU216HW,2013-12-25 22:26:00,
2013-12-25 16:27:00,40.0,28.4,30.28,SW,225,2.7,3.4,63,0.01,,,0.34,WUHU216HW,2013-12-25 22:27:00,
2013-12-25 16:28:00,39.8,28.2,30.28,WSW,248,1.8,4.3,63,0.01,,,0.34,WUHU216HW,2013-12-25 22:28:00,
2013-12-25 16:29:00,39.8,28.5,30.28,WNW,293,1.1,4.3,64,0.01,,,0.34,WUHU216HW,2013-12-25 22:29:00,
2013-12-25 16:31:00,39.6,28.4,30.28,WNW,293,0.2,4.3,64,0.01,,,0.34,WUHU216HW,2013-12-25 22:31:00,
2013-12-25 16:32:00,39.4,28.2,30.28,WNW,293,0.0,4.3,64,0.01,,,0.34,WUHU216HW,2013-12-25 22:32:00,
2013-12-25 16:33:00,39.4,28.2,30.27,West,270,0.0,4.3,64,0.01,,,0.34,WUHU216HW,2013-12-25 22:33:00,
2013-12-25 16:34:00,39.2,28.0,30.27,WNW,293,1.6,4.3,64,0.01,,,0.34,WUHU216HW,2013-12-25 22:34:00,
2013-12-25 16:35:00,39.2,28.0,30.27,WNW,293,0.0,4.3,64,0.01,,,0.34,WUHU216HW,2013-12-25 22:35:00,
2013-12-25 16:36:00,39.2,28.0,30.28,West,270,0.0,4.3,64,0.01,,,0.34,WUHU216HW,2013-12-25 22:36:00,
2013-12-25 16:37:00,39.2,28.0,30.27,NW,315,0.7,4.3,64,0.01,,,0.34,WUHU216HW,2013-12-25 22:37:00,
2013-12-25 16:38:00,39.1,27.8,30.27,NW,315,0.4,3.4,64,0.01,,,0.34,WUHU216HW,2013-12-25 22:38:00,
2013-12-25 16:40:00,38.9,28.0,30.27,NW,315,0.0,2.8,65,0.01,,,0.34,WUHU216HW,2013-12-25 22:40:00,
2013-12-25 16:41:00,38.9,28.0,30.28,NW,315,1.8,2.8,65,0.00,,,0.34,WUHU216HW,2013-12-25 22:41:00,
2013-12-25 16:42:00,38.9,28.0,30.28,WNW,293,0.0,2.8,65,0.00,,,0.34,WUHU216HW,2013-12-25 22:42:00,
2013-12-25 16:43:00,38.9,28.0,30.28,West,270,0.0,2.8,65,0.00,,,0.34,WUHU216HW,2013-12-25 22:43:00,
2013-12-25 16:44:00,38.7,27.9,30.28,WNW,293,1.1,2.8,65,0.00,,,0.34,WUHU216HW,2013-12-25 22:44:00,
2013-12-25 16:45:00,38.5,27.7,30.28,SSW,203,0.0,2.3,65,0.00,,,0.34,WUHU216HW,2013-12-25 22:45:00,
2013-12-25 16:46:00,38.5,27.7,30.28,NNW,338,0.7,2.3,65,0.00,,,0.34,WUHU216HW,2013-12-25 22:46:00,
2013-12-25 16:47:00,38.5,28.1,30.28,NW,315,0.7,2.3,66,0.00,,,0.34,WUHU216HW,2013-12-25 22:47:00,
2013-12-25 16:48:00,38.5,27.7,30.28,WNW,293,0.0,2.3,65,0.00,,,0.34,WUHU216HW,2013-12-25 22:48:00,
2013-12-25 16:49:00,38.3,27.9,30.28,NNW,338,0.0,2.8,66,0.00,,,0.34,WUHU216HW,2013-12-25 22:49:00,
2013-12-25 16:50:00,38.3,27.9,30.28,WNW,293,0.0,2.8,66,0.00,,,0.34,WUHU216HW,2013-12-25 22:50:00,
2013-12-25 16:52:00,38.2,27.7,30.28,WNW,293,0.0,2.8,66,0.00,,,0.34,WUHU216HW,2013-12-25 22:52:00,
2013-12-25 16:53:00,38.2,27.7,30.28,WNW,293,0.0,2.8,66,0.00,,,0.34,WUHU216HW,2013-12-25 22:53:00,
2013-12-25 16:54:00,38.0,27.6,30.28,WSW,248,0.0,2.8,66,0.00,,,0.34,WUHU216HW,2013-12-25 22:54:00,
2013-12-25 16:55:00,37.8,27.5,30.28,WSW,248,0.0,2.8,66,0.00,,,0.34,WUHU216HW,2013-12-25 22:55:00,
2013-12-25 16:56:00,37.8,27.5,30.28,NNW,338,0.0,2.8,66,0.00,,,0.34,WUHU216HW,2013-12-25 22:56:00,
2013-12-25 16:58:00,37.8,27.5,30.28,NW,315,0.0,2.8,66,0.00,,,0.34,WUHU216HW,2013-12-25 22:58:00,
2013-12-25 17:00:00,37.6,27.3,30.28,WNW,293,0.0,0.0,66,0.00,,,0.34,WUHU216HW,2013-12-25 23:00:00,
2013-12-25 17:01:00,37.4,27.1,30.28,SSW,203,0.0,0.0,66,0.00,,,0.34,WUHU216HW,2013-12-25 23:01:00,
2013-12-25 17:03:00,37.3,27.3,30.28,WNW,293,0.0,0.0,67,0.00,,,0.34,WUHU216HW,2013-12-25 23:03:00,
2013-12-25 17:04:00,37.3,27.3,30.28,WNW,293,0.0,0.0,67,0.00,,,0.34,WUHU216HW,2013-12-25 23:04:00,
2013-12-25 17:05:00,37.1,27.2,30.28,NNW,338,0.0,0.9,67,0.00,,,0.34,WUHU216HW,2013-12-25 23:05:00,
2013-12-25 17:06:00,37.1,27.2,30.28,WNW,293,0.0,0.9,67,0.00,,,0.34,WUHU216HW,2013-12-25 23:06:00,
2013-12-25 17:08:00,37.1,27.2,30.28,WSW,248,0.0,0.9,67,0.00,,,0.34,WUHU216HW,2013-12-25 23:08:00,
2013-12-25 17:09:00,37.1,27.2,30.28,WSW,248,0.0,0.9,67,0.00,,,0.34,WUHU216HW,2013-12-25 23:09:00,
2013-12-25 17:10:00,36.9,27.0,30.28,SW,225,0.0,0.9,67,0.00,,,0.34,WUHU216HW,2013-12-25 23:10:00,
2013-12-25 17:11:00,36.9,27.0,30.28,SW,225,0.0,0.9,67,0.00,,,0.34,WUHU216HW,2013-12-25 23:11:00,
2013-12-25 17:12:00,36.7,26.8,30.28,WSW,248,0.0,0.9,67,0.00,,,0.34,WUHU216HW,2013-12-25 23:12:00,
2013-12-25 17:13:00,36.5,26.7,30.28,West,270,0.0,0.9,67,0.00,,,0.34,WUHU216HW,2013-12-25 23:13:00,
2013-12-25 17:14:00,36.5,26.7,30.28,NW,315,0.0,0.9,67,0.00,,,0.34,WUHU216HW,2013-12-25 23:14:00,
2013-12-25 17:15:00,36.4,26.8,30.28,WNW,293,0.0,0.0,68,0.00,,,0.34,WUHU216HW,2013-12-25 23:15:00,
2013-12-25 17:16:00,36.4,26.8,30.28,WNW,293,0.0,0.0,68,0.00,,,0.34,WUHU216HW,2013-12-25 23:16:00,
2013-12-25 17:18:00,36.2,26.7,30.28,West,270,0.0,0.0,68,0.00,,,0.34,WUHU216HW,2013-12-25 23:18:00,
2013-12-25 17:19:00,36.2,26.7,30.28,WSW,248,0.0,0.0,68,0.00,,,0.34,WUHU216HW,2013-12-25 23:19:00,
2013-12-25 17:20:00,36.0,26.5,30.28,WNW,293,0.0,0.0,68,0.00,,,0.34,WUHU216HW,2013-12-25 23:20:00,
2013-12-25 17:22:00,35.8,26.3,30.28,West,270,1.6,2.0,68,0.00,,,0.34,WUHU216HW,2013-12-25 23:22:00,
2013-12-25 17:23:00,35.8,26.3,30.28,West,270,0.0,2.0,68,0.00,,,0.34,WUHU216HW,2013-12-25 23:23:00,
2013-12-25 17:24:00,35.8,26.7,30.28,West,270,0.0,2.0,69,0.00,,,0.34,WUHU216HW,2013-12-25 23:24:00,
2013-12-25 17:25:00,35.6,26.5,30.28,WSW,248,0.0,2.0,69,0.00,,,0.34,WUHU216HW,2013-12-25 23:25:00,
2013-12-25 17:29:00,35.6,26.5,30.28,WSW,248,0.0,2.0,69,0.00,,,0.34,WUHU216HW,2013-12-25 23:29:00,
2013-12-25 17:30:00,35.5,26.3,30.28,WSW,248,0.0,2.0,69,0.00,,,0.34,WUHU216HW,2013-12-25 23:30:00,
2013-12-25 17:34:00,35.3,26.5,30.28,WSW,248,0.0,0.5,70,0.00,,,0.34,WUHU216HW,2013-12-25 23:34:00,
2013-12-25 17:35:00,35.3,26.5,30.28,WSW,248,0.0,0.5,70,0.00,,,0.34,WUHU216HW,2013-12-25 23:35:00,
2013-12-25 17:36:00,35.3,26.5,30.28,WSW,248,0.0,0.3,70,0.00,,,0.34,WUHU216HW,2013-12-25 23:36:00,
2013-12-25 17:39:00,35.1,26.3,30.28,WSW,248,0.0,0.0,70,0.00,,,0.34,WUHU216HW,2013-12-25 23:39:00,
2013-12-25 17:41:00,34.9,26.1,30.28,WSW,248,0.0,0.0,70,0.00,,,0.34,WUHU216HW,2013-12-25 23:41:00,
2013-12-25 17:44:00,34.9,26.5,30.28,WSW,248,0.0,0.0,71,0.00,,,0.34,WUHU216HW,2013-12-25 23:44:00,
2013-12-25 17:46:00,34.7,26.3,30.28,WSW,248,0.0,0.0,71,0.00,,,0.34,WUHU216HW,2013-12-25 23:46:00,
2013-12-25 17:49:00,34.6,26.1,30.28,WSW,248,0.0,0.0,71,0.00,,,0.34,WUHU216HW,2013-12-25 23:49:00,
2013-12-25 17:50:00,34.6,26.1,30.28,WSW,248,0.0,0.0,71,0.00,,,0.34,WUHU216HW,2013-12-25 23:50:00,
2013-12-25 17:51:00,34.6,26.1,30.28,WSW,248,0.0,0.0,71,0.00,,,0.34,WUHU216HW,2013-12-25 23:51:00,
2013-12-25 17:52:00,34.6,26.1,30.28,WSW,248,0.0,0.0,71,0.00,,,0.34,WUHU216HW,2013-12-25 23:52:00,
2013-12-25 17:54:00,34.4,25.9,30.28,WSW,248,0.0,0.0,71,0.00,,,0.34,WUHU216HW,2013-12-25 23:54:00,
2013-12-25 17:55:00,34.4,25.9,30.28,WSW,248,0.0,0.0,71,0.00,,,0.34,WUHU216HW,2013-12-25 23:55:00,
2013-12-25 17:56:00,34.4,25.9,30.28,WSW,248,0.0,0.0,71,0.00,,,0.34,WUHU216HW,2013-12-25 23:56:00,
2013-12-25 17:57:00,34.2,25.4,30.28,WSW,248,0.0,0.0,70,0.00,,,0.34,WUHU216HW,2013-12-25 23:57:00,
2013-12-25 17:59:00,34.2,25.8,30.28,WSW,248,0.0,0.0,71,0.00,,,0.34,WUHU216HW,2013-12-25 23:59:00,
2013-12-25 18:00:00,34.2,25.8,30.28,WSW,248,0.0,0.0,71,0.00,,,0.34,WUHU216HW,2013-12-26 00:00:00,
2013-12-25 18:01:00,34.0,25.6,30.28,WSW,248,0.0,0.0,71,0.00,,,0.34,WUHU216HW,2013-12-26 00:01:00,
2013-12-25 18:02:00,34.0,25.6,30.28,WSW,248,0.0,0.0,71,0.00,,,0.34,WUHU216HW,2013-12-26 00:02:00,
2013-12-25 18:04:00,33.8,25.4,30.28,WSW,248,0.0,0.0,71,0.00,,,0.34,WUHU216HW,2013-12-26 00:04:00,
2013-12-25 18:05:00,33.8,25.4,30.28,WSW,248,0.0,0.0,71,0.00,,,0.34,WUHU216HW,2013-12-26 00:05:00,
2013-12-25 18:06:00,33.8,25.4,30.28,WSW,248,0.0,0.0,71,0.00,,,0.34,WUHU216HW,2013-12-26 00:06:00,
2013-12-25 18:07:00,33.8,25.7,30.28,WSW,248,0.0,0.0,72,0.00,,,0.34,WUHU216HW,2013-12-26 00:07:00,
2013-12-25 18:08:00,33.8,25.7,30.28,WSW,248,0.0,0.0,72,0.00,,,0.34,WUHU216HW,2013-12-26 00:08:00,
2013-12-25 18:09:00,33.8,25.7,30.28,WSW,248,0.0,0.0,72,0.00,,,0.34,WUHU216HW,2013-12-26 00:09:00,
2013-12-25 18:11:00,33.7,25.5,30.28,WSW,248,0.0,0.0,72,0.00,,,0.34,WUHU216HW,2013-12-26 00:11:00,
2013-12-25 18:12:00,33.7,25.5,30.28,WSW,248,0.0,0.0,72,0.00,,,0.34,WUHU216HW,2013-12-26 00:12:00,
2013-12-25 18:13:00,33.7,25.5,30.28,WSW,248,0.0,0.0,72,0.00,,,0.34,WUHU216HW,2013-12-26 00:13:00,
2013-12-25 18:14:00,33.5,25.4,30.28,WSW,248,0.0,0.0,72,0.00,,,0.34,WUHU216HW,2013-12-26 00:14:00,
2013-12-25 18:16:00,33.5,25.4,30.29,WSW,248,0.0,0.0,72,0.00,,,0.34,WUHU216HW,2013-12-26 00:16:00,
2013-12-25 18:17:00,33.5,25.4,30.29,WSW,248,0.0,0.0,72,0.00,,,0.34,WUHU216HW,2013-12-26 00:17:00,
2013-12-25 18:18:00,33.5,25.7,30.29,SW,225,0.0,0.0,73,0.00,,,0.34,WUHU216HW,2013-12-26 00:18:00,
2013-12-25 18:19:00,33.5,25.7,30.29,SW,225,0.0,0.0,73,0.00,,,0.34,WUHU216HW,2013-12-26 00:19:00,
2013-12-25 18:21:00,33.3,25.5,30.29,SSW,203,0.0,0.0,73,0.00,,,0.34,WUHU216HW,2013-12-26 00:21:00,
2013-12-25 18:22:00,33.3,25.5,30.29,SSW,203,0.0,0.0,73,0.00,,,0.34,WUHU216HW,2013-12-26 00:22:00,
2013-12-25 18:23:00,33.3,25.5,30.29,SSW,203,0.0,0.0,73,0.00,,,0.34,WUHU216HW,2013-12-26 00:23:00,
2013-12-25 18:25:00,33.3,25.8,30.29,SW,225,0.0,0.0,74,0.00,,,0.34,WUHU216HW,2013-12-26 00:25:00,
2013-12-25 18:26:00,33.1,25.7,30.29,SSW,203,0.0,0.0,74,0.00,,,0.34,WUHU216HW,2013-12-26 00:26:00,
2013-12-25 18:27:00,33.3,25.8,30.29,NW,315,0.0,0.0,74,0.00,,,0.34,WUHU216HW,2013-12-26 00:27:00,
2013-12-25 18:28:00,33.3,25.8,30.29,West,270,0.0,0.0,74,0.00,,,0.34,WUHU216HW,2013-12-26 00:28:00,
2013-12-25 18:30:00,33.3,25.8,30.29,WSW,248,0.0,0.0,74,0.00,,,0.34,WUHU216HW,2013-12-26 00:30:00,
2013-12-25 18:32:00,33.1,25.7,30.29,WSW,248,0.0,0.0,74,0.00,,,0.34,WUHU216HW,2013-12-26 00:32:00,
2013-12-25 18:33:00,33.1,25.7,30.29,West,270,0.0,0.0,74,0.00,,,0.34,WUHU216HW,2013-12-26 00:33:00,
2013-12-25 18:35:00,32.9,25.5,30.29,West,270,0.0,0.0,74,0.00,,,0.34,WUHU216HW,2013-12-26 00:35:00,
2013-12-25 18:37:00,32.8,25.4,30.29,West,270,0.0,0.0,74,0.00,,,0.34,WUHU216HW,2013-12-26 00:37:00,
2013-12-25 18:38:00,32.8,25.4,30.29,WSW,248,0.0,0.0,74,0.00,,,0.34,WUHU216HW,2013-12-26 00:38:00,
2013-12-25 18:40:00,32.6,25.2,30.29,West,270,0.0,0.0,74,0.00,,,0.34,WUHU216HW,2013-12-26 00:40:00,
2013-12-25 18:42:00,32.4,25.0,30.29,WSW,248,0.0,0.0,74,0.00,,,0.34,WUHU216HW,2013-12-26 00:42:00,
2013-12-25 18:43:00,32.4,25.0,30.29,WSW,248,0.0,0.0,74,0.00,,,0.34,WUHU216HW,2013-12-26 00:43:00,
2013-12-25 18:44:00,32.4,25.0,30.29,WSW,248,0.0,0.0,74,0.00,,,0.34,WUHU216HW,2013-12-26 00:44:00,
2013-12-25 18:46:00,32.2,25.2,30.29,WSW,248,0.0,0.0,75,0.00,,,0.34,WUHU216HW,2013-12-26 00:46:00,
2013-12-25 18:48:00,32.2,25.2,30.29,WSW,248,0.0,0.0,75,0.00,,,0.34,WUHU216HW,2013-12-26 00:48:00,
2013-12-25 18:49:00,32.2,25.2,30.29,WSW,248,0.0,0.0,75,0.00,,,0.34,WUHU216HW,2013-12-26 00:49:00,
2013-12-25 18:51:00,32.0,25.0,30.29,WSW,248,0.0,0.0,75,0.00,,,0.34,WUHU216HW,2013-12-26 00:51:00,
2013-12-25 18:53:00,32.0,25.0,30.29,WSW,248,0.0,0.0,75,0.00,,,0.34,WUHU216HW,2013-12-26 00:53:00,
2013-12-25 18:54:00,32.0,25.0,30.29,WSW,248,0.0,0.0,75,0.00,,,0.34,WUHU216HW,2013-12-26 00:54:00,
2013-12-25 18:56:00,32.0,25.4,30.29,WSW,248,0.0,0.0,76,0.00,,,0.34,WUHU216HW,2013-12-26 00:56:00,
2013-12-25 18:58:00,32.0,25.4,30.29,WSW,248,0.0,0.0,76,0.00,,,0.34,WUHU216HW,2013-12-26 00:58:00,
2013-12-25 18:59:00,32.0,25.4,30.29,WSW,248,0.0,0.0,76,0.00,,,0.34,WUHU216HW,2013-12-26 00:59:00,
2013-12-25 19:00:00,32.0,25.4,30.29,WSW,248,0.0,0.0,76,0.00,,,0.34,WUHU216HW,2013-12-26 01:00:00,
2013-12-25 19:01:00,32.0,25.4,30.29,WSW,248,0.0,0.0,76,0.00,,,0.34,WUHU216HW,2013-12-26 01:01:00,
2013-12-25 19:03:00,31.9,25.2,30.29,WSW,248,0.0,0.0,76,0.00,,,0.34,WUHU216HW,2013-12-26 01:03:00,
2013-12-25 19:04:00,31.9,25.2,30.29,WSW,248,0.0,0.0,76,0.00,,,0.34,WUHU216HW,2013-12-26 01:04:00,
2013-12-25 19:05:00,31.7,25.0,30.29,WSW,248,0.0,0.0,76,0.00,,,0.34,WUHU216HW,2013-12-26 01:05:00,
2013-12-25 19:07:00,31.7,25.0,30.29,WSW,248,0.0,0.0,76,0.00,,,0.34,WUHU216HW,2013-12-26 01:07:00,
2013-12-25 19:08:00,31.7,25.0,30.29,WSW,248,0.0,0.0,76,0.00,,,0.34,WUHU216HW,2013-12-26 01:08:00,
2013-12-25 19:09:00,31.5,24.9,30.29,WSW,248,0.0,0.0,76,0.00,,,0.34,WUHU216HW,2013-12-26 01:09:00,
2013-12-25 19:10:00,31.5,24.9,30.29,WSW,248,0.0,0.0,76,0.00,,,0.34,WUHU216HW,2013-12-26 01:10:00,
2013-12-25 19:12:00,31.5,24.9,30.29,WSW,248,0.0,0.0,76,0.00,,,0.34,WUHU216HW,2013-12-26 01:12:00,
2013-12-25 19:13:00,31.5,24.9,30.29,WSW,248,0.0,0.0,76,0.00,,,0.34,WUHU216HW,2013-12-26 01:13:00,
2013-12-25 19:15:00,31.5,24.9,30.29,WSW,248,0.0,0.0,76,0.00,,,0.34,WUHU216HW,2013-12-26 01:15:00,
2013-12-25 19:16:00,31.5,25.1,30.29,WSW,248,0.0,0.0,77,0.00,,,0.34,WUHU216HW,2013-12-26 01:16:00,
2013-12-25 19:17:00,31.5,25.1,30.29,WSW,248,0.0,0.0,77,0.00,,,0.34,WUHU216HW,2013-12-26 01:17:00,
2013-12-25 19:19:00,31.3,24.9,30.29,WSW,248,0.0,0.0,77,0.00,,,0.34,WUHU216HW,2013-12-26 01:19:00,
2013-12-25 19:20:00,31.3,24.9,30.30,WSW,248,0.0,0.0,77,0.00,,,0.34,WUHU216HW,2013-12-26 01:20:00,
2013-12-25 19:22:00,31.3,24.9,30.29,WSW,248,0.0,0.0,77,0.00,,,0.34,WUHU216HW,2013-12-26 01:22:00,
2013-12-25 19:24:00,31.3,24.9,30.30,WSW,248,0.0,0.0,77,0.00,,,0.34,WUHU216HW,2013-12-26 01:24:00,
2013-12-25 19:25:00,31.3,24.9,30.29,WSW,248,0.0,0.0,77,0.00,,,0.34,WUHU216HW,2013-12-26 01:25:00,
2013-12-25 19:26:00,31.3,24.9,30.30,WSW,248,0.0,0.0,77,0.00,,,0.34,WUHU216HW,2013-12-26 01:26:00,
2013-12-25 19:27:00,31.3,24.9,30.30,WSW,248,0.0,0.0,77,0.00,,,0.34,WUHU216HW,2013-12-26 01:27:00,
2013-12-25 19:29:00,31.1,24.8,30.30,WSW,248,0.0,0.0,77,0.00,,,0.34,WUHU216HW,2013-12-26 01:29:00,
2013-12-25 19:30:00,31.1,24.8,30.30,WSW,248,0.0,0.0,77,0.00,,,0.34,WUHU216HW,2013-12-26 01:30:00,
2013-12-25 19:31:00,31.1,24.8,30.30,South,180,0.0,0.0,77,0.00,,,0.34,WUHU216HW,2013-12-26 01:31:00,
2013-12-25 19:32:00,31.1,24.8,30.30,WSW,248,0.0,0.0,77,0.00,,,0.34,WUHU216HW,2013-12-26 01:32:00,
2013-12-25 19:34:00,31.1,25.1,30.30,WSW,248,0.0,0.0,78,0.00,,,0.34,WUHU216HW,2013-12-26 01:34:00,
2013-12-25 19:35:00,31.0,24.9,30.30,WSW,248,0.0,0.0,78,0.00,,,0.34,WUHU216HW,2013-12-26 01:35:00,
2013-12-25 19:36:00,31.0,24.9,30.30,WSW,248,0.0,0.0,78,0.00,,,0.34,WUHU216HW,2013-12-26 01:36:00,
2013-12-25 19:37:00,31.0,24.9,30.30,WSW,248,0.0,0.0,78,0.00,,,0.34,WUHU216HW,2013-12-26 01:37:00,
2013-12-25 19:39:00,31.0,24.9,30.30,WSW,248,0.0,0.0,78,0.00,,,0.34,WUHU216HW,2013-12-26 01:39:00,
2013-12-25 19:40:00,31.0,24.9,30.30,WSW,248,0.0,0.0,78,0.00,,,0.34,WUHU216HW,2013-12-26 01:40:00,
2013-12-25 19:42:00,31.0,24.9,30.30,WSW,248,0.0,0.0,78,0.00,,,0.34,WUHU216HW,2013-12-26 01:42:00,
2013-12-25 19:43:00,31.0,24.9,30.30,WSW,248,0.0,0.0,78,0.00,,,0.34,WUHU216HW,2013-12-26 01:43:00,
2013-12-25 19:44:00,31.0,24.9,30.30,WSW,248,0.0,0.0,78,0.00,,,0.34,WUHU216HW,2013-12-26 01:44:00,
2013-12-25 19:46:00,31.0,24.9,30.30,WSW,248,0.0,0.0,78,0.00,,,0.34,WUHU216HW,2013-12-26 01:46:00,
2013-12-25 19:47:00,31.0,24.9,30.30,SW,225,0.0,0.0,78,0.00,,,0.34,WUHU216HW,2013-12-26 01:47:00,
2013-12-25 19:48:00,31.0,24.9,30.30,SW,225,0.0,0.0,78,0.00,,,0.34,WUHU216HW,2013-12-26 01:48:00,
2013-12-25 19:49:00,31.1,25.1,30.30,WSW,248,0.0,0.0,78,0.00,,,0.34,WUHU216HW,2013-12-26 01:49:00,
2013-12-25 19:50:00,31.1,25.1,30.30,WSW,248,0.0,0.0,78,0.00,,,0.34,WUHU216HW,2013-12-26 01:50:00,
2013-12-25 19:51:00,31.1,25.1,30.30,WSW,248,0.0,0.0,78,0.00,,,0.34,WUHU216HW,2013-12-26 01:51:00,
2013-12-25 19:53:00,31.1,25.1,30.30,WSW,248,0.0,0.0,78,0.00,,,0.34,WUHU216HW,2013-12-26 01:53:00,
2013-12-25 19:54:00,31.3,25.3,30.30,WSW,248,0.0,0.0,78,0.00,,,0.34,WUHU216HW,2013-12-26 01:54:00,
2013-12-25 19:55:00,31.1,25.1,30.30,WSW,248,0.0,0.0,78,0.00,,,0.34,WUHU216HW,2013-12-26 01:55:00,
2013-12-25 19:56:00,31.3,25.3,30.30,WSW,248,0.0,0.0,78,0.00,,,0.34,WUHU216HW,2013-12-26 01:56:00,
2013-12-25 19:58:00,31.3,25.3,30.30,WSW,248,0.0,0.0,78,0.00,,,0.34,WUHU216HW,2013-12-26 01:58:00,
2013-12-25 19:59:00,31.3,25.3,30.30,West,270,0.0,0.0,78,0.00,,,0.34,WUHU216HW,2013-12-26 01:59:00,
2013-12-25 20:00:00,31.3,25.3,30.30,SW,225,0.0,0.0,78,0.00,,,0.34,WUHU216HW,2013-12-26 02:00:00,
2013-12-25 20:01:00,31.1,25.1,30.30,WSW,248,0.0,0.0,78,0.00,,,0.34,WUHU216HW,2013-12-26 02:01:00,
2013-12-25 20:03:00,31.1,25.1,30.30,WSW,248,0.0,0.0,78,0.00,,,0.34,WUHU216HW,2013-12-26 02:03:00,
2013-12-25 20:04:00,31.1,25.1,30.30,WSW,248,0.0,0.0,78,0.00,,,0.34,WUHU216HW,2013-12-26 02:04:00,
2013-12-25 20:05:00,31.1,25.1,30.30,WNW,293,0.0,0.0,78,0.00,,,0.34,WUHU216HW,2013-12-26 02:05:00,
2013-12-25 20:07:00,31.1,25.1,30.30,West,270,0.0,0.0,78,0.00,,,0.34,WUHU216HW,2013-12-26 02:07:00,
2013-12-25 20:08:00,31.1,25.4,30.30,WSW,248,0.0,0.0,79,0.00,,,0.34,WUHU216HW,2013-12-26 02:08:00,
2013-12-25 20:09:00,31.1,25.4,30.30,WSW,248,0.0,0.0,79,0.00,,,0.34,WUHU216HW,2013-12-26 02:09:00,
2013-12-25 20:10:00,31.1,25.4,30.30,NW,315,0.0,0.0,79,0.00,,,0.34,WUHU216HW,2013-12-26 02:10:00,
2013-12-25 20:11:00,31.1,25.4,30.30,NW,315,0.0,0.0,79,0.00,,,0.34,WUHU216HW,2013-12-26 02:11:00,
2013-12-25 20:12:00,31.1,25.4,30.30,SW,225,0.0,0.0,79,0.00,,,0.34,WUHU216HW,2013-12-26 02:12:00,
2013-12-25 20:13:00,31.1,25.4,30.31,WSW,248,0.0,0.0,79,0.00,,,0.34,WUHU216HW,2013-12-26 02:13:00,
2013-12-25 20:14:00,31.1,25.4,30.30,WSW,248,0.0,0.0,79,0.00,,,0.34,WUHU216HW,2013-12-26 02:14:00,
2013-12-25 20:16:00,31.1,25.4,30.31,WSW,248,0.0,0.0,79,0.00,,,0.34,WUHU216HW,2013-12-26 02:16:00,
2013-12-25 20:17:00,31.0,25.2,30.31,WSW,248,0.0,0.0,79,0.00,,,0.34,WUHU216HW,2013-12-26 02:17:00,
2013-12-25 20:18:00,31.0,25.2,30.30,WSW,248,0.2,0.3,79,0.00,,,0.34,WUHU216HW,2013-12-26 02:18:00,
2013-12-25 20:19:00,31.0,25.2,30.30,WSW,248,2.0,2.5,79,0.00,,,0.34,WUHU216HW,2013-12-26 02:19:00,
2013-12-25 20:21:00,31.0,25.2,30.31,West,270,0.0,2.5,79,0.00,,,0.34,WUHU216HW,2013-12-26 02:21:00,
2013-12-25 20:22:00,31.0,25.2,30.30,West,270,0.0,2.5,79,0.00,,,0.34,WUHU216HW,2013-12-26 02:22:00,
2013-12-25 20:24:00,31.0,25.2,30.31,WNW,293,0.0,2.5,79,0.00,,,0.34,WUHU216HW,2013-12-26 02:24:00,
2013-12-25 20:26:00,30.8,25.0,30.30,WNW,293,0.0,2.5,79,0.00,,,0.34,WUHU216HW,2013-12-26 02:26:00,
2013-12-25 20:27:00,30.8,25.0,30.31,WSW,248,0.0,2.5,79,0.00,,,0.34,WUHU216HW,2013-12-26 02:27:00,
2013-12-25 20:29:00,30.8,25.0,30.30,SW,225,0.0,2.5,79,0.00,,,0.34,WUHU216HW,2013-12-26 02:29:00,
2013-12-25 20:30:00,30.8,25.0,30.30,WSW,248,0.0,1.4,79,0.00,,,0.34,WUHU216HW,2013-12-26 02:30:00,
2013-12-25 20:31:00,30.8,25.0,30.30,West,270,0.0,1.4,79,0.00,,,0.34,WUHU216HW,2013-12-26 02:31:00,
2013-12-25 20:32:00,30.8,25.0,30.30,West,270,0.0,1.4,79,0.00,,,0.34,WUHU216HW,2013-12-26 02:32:00,
2013-12-25 20:33:00,30.8,25.0,30.30,WNW,293,0.0,1.4,79,0.00,,,0.34,WUHU216HW,2013-12-26 02:33:00,
2013-12-25 20:34:00,30.6,24.8,30.30,WNW,293,0.0,1.4,79,0.00,,,0.34,WUHU216HW,2013-12-26 02:34:00,
2013-12-25 20:35:00,30.6,24.8,30.31,SW,225,0.0,1.4,79,0.00,,,0.34,WUHU216HW,2013-12-26 02:35:00,
2013-12-25 20:36:00,30.6,24.8,30.31,NW,315,0.0,0.9,79,0.00,,,0.34,WUHU216HW,2013-12-26 02:36:00,
2013-12-25 20:37:00,30.6,24.8,30.31,WNW,293,0.0,0.5,79,0.00,,,0.34,WUHU216HW,2013-12-26 02:37:00,
2013-12-25 20:38:00,30.6,24.8,30.31,NW,315,0.0,0.0,79,0.00,,,0.34,WUHU216HW,2013-12-26 02:38:00,
2013-12-25 20:39:00,30.6,24.8,30.31,NW,315,0.0,0.0,79,0.00,,,0.34,WUHU216HW,2013-12-26 02:39:00,
2013-12-25 20:40:00,30.6,24.8,30.31,NW,315,0.0,0.0,79,0.00,,,0.34,WUHU216HW,2013-12-26 02:40:00,
2013-12-25 20:41:00,30.6,24.8,30.31,SSW,203,0.0,0.0,79,0.00,,,0.34,WUHU216HW,2013-12-26 02:41:00,
2013-12-25 20:42:00,30.6,24.8,30.31,SSW,203,0.0,0.0,79,0.00,,,0.34,WUHU216HW,2013-12-26 02:42:00,
2013-12-25 20:43:00,30.6,24.8,30.31,West,270,0.0,0.0,79,0.00,,,0.34,WUHU216HW,2013-12-26 02:43:00,
2013-12-25 20:44:00,30.6,24.8,30.31,North,0,0.0,0.0,79,0.00,,,0.34,WUHU216HW,2013-12-26 02:44:00,
2013-12-25 20:45:00,30.6,24.8,30.31,West,270,0.0,0.3,79,0.00,,,0.34,WUHU216HW,2013-12-26 02:45:00,
2013-12-25 20:47:00,30.6,24.8,30.31,West,270,0.0,0.3,79,0.00,,,0.34,WUHU216HW,2013-12-26 02:47:00,
2013-12-25 20:48:00,30.6,24.8,30.31,WNW,293,0.4,2.0,79,0.00,,,0.34,WUHU216HW,2013-12-26 02:48:00,
2013-12-25 20:49:00,30.6,24.8,30.31,WNW,293,0.0,2.0,79,0.00,,,0.34,WUHU216HW,2013-12-26 02:49:00,
2013-12-25 20:50:00,30.6,24.8,30.31,SSE,158,0.0,2.0,79,0.00,,,0.34,WUHU216HW,2013-12-26 02:50:00,
2013-12-25 20:52:00,30.6,25.2,30.31,WNW,293,0.0,2.0,80,0.00,,,0.34,WUHU216HW,2013-12-26 02:52:00,
2013-12-25 20:53:00,30.6,25.2,30.31,West,270,0.0,2.0,80,0.00,,,0.34,WUHU216HW,2013-12-26 02:53:00,
2013-12-25 20:54:00,30.6,24.8,30.31,WNW,293,0.0,2.0,79,0.00,,,0.34,WUHU216HW,2013-12-26 02:54:00,
2013-12-25 20:55:00,30.6,24.8,30.31,SW,225,0.0,2.0,79,0.00,,,0.34,WUHU216HW,2013-12-26 02:55:00,
2013-12-25 20:57:00,30.6,24.8,30.31,West,270,0.0,0.5,79,0.00,,,0.34,WUHU216HW,2013-12-26 02:57:00,
2013-12-25 20:58:00,30.6,24.8,30.31,West,270,0.0,0.5,79,0.00,,,0.34,WUHU216HW,2013-12-26 02:58:00,
2013-12-25 20:59:00,30.6,24.8,30.31,West,270,0.0,0.5,79,0.00,,,0.34,WUHU216HW,2013-12-26 02:59:00,
2013-12-25 21:00:00,30.6,24.8,30.31,West,270,0.0,0.0,79,0.00,,,0.34,WUHU216HW,2013-12-26 03:00:00,
2013-12-25 21:01:00,30.6,25.2,30.31,WNW,293,0.0,0.0,80,0.00,,,0.34,WUHU216HW,2013-12-26 03:01:00,
2013-12-25 21:03:00,30.6,25.2,30.31,West,270,0.0,0.0,80,0.00,,,0.34,WUHU216HW,2013-12-26 03:03:00,
2013-12-25 21:04:00,30.8,25.4,30.31,West,270,0.0,0.0,80,0.00,,,0.34,WUHU216HW,2013-12-26 03:04:00,
2013-12-25 21:05:00,30.8,25.4,30.31,West,270,0.0,0.0,80,0.00,,,0.34,WUHU216HW,2013-12-26 03:05:00,
2013-12-25 21:06:00,30.8,25.4,30.31,West,270,0.0,0.0,80,0.00,,,0.34,WUHU216HW,2013-12-26 03:06:00,
2013-12-25 21:08:00,30.8,25.4,30.31,WSW,248,0.0,0.0,80,0.00,,,0.34,WUHU216HW,2013-12-26 03:08:00,
2013-12-25 21:09:00,30.8,25.4,30.31,SW,225,0.0,0.0,80,0.00,,,0.34,WUHU216HW,2013-12-26 03:09:00,
2013-12-25 21:10:00,30.8,25.4,30.31,SW,225,0.0,0.0,80,0.00,,,0.34,WUHU216HW,2013-12-26 03:10:00,
2013-12-25 21:11:00,30.8,25.4,30.31,West,270,0.0,0.0,80,0.00,,,0.34,WUHU216HW,2013-12-26 03:11:00,
2013-12-25 21:13:00,30.8,25.4,30.31,WNW,293,0.0,0.0,80,0.00,,,0.34,WUHU216HW,2013-12-26 03:13:00,
2013-12-25 21:14:00,30.8,25.4,30.31,NW,315,0.0,0.0,80,0.00,,,0.34,WUHU216HW,2013-12-26 03:14:00,
2013-12-25 21:15:00,30.8,25.4,30.31,NW,315,0.0,0.0,80,0.00,,,0.34,WUHU216HW,2013-12-26 03:15:00,
2013-12-25 21:16:00,30.8,25.4,30.31,SSW,203,0.0,0.0,80,0.00,,,0.34,WUHU216HW,2013-12-26 03:16:00,
2013-12-25 21:18:00,30.8,25.4,30.32,SW,225,0.0,0.0,80,0.00,,,0.34,WUHU216HW,2013-12-26 03:18:00,
2013-12-25 21:19:00,30.8,25.4,30.32,SSW,203,0.0,0.0,80,0.00,,,0.34,WUHU216HW,2013-12-26 03:19:00,
2013-12-25 21:20:00,30.8,25.4,30.31,WNW,293,1.1,1.4,80,0.00,,,0.34,WUHU216HW,2013-12-26 03:20:00,
2013-12-25 21:23:00,30.8,25.4,30.32,West,270,0.0,1.4,80,0.00,,,0.34,WUHU216HW,2013-12-26 03:23:00,
2013-12-25 21:24:00,30.8,25.4,30.31,WSW,248,0.0,1.4,80,0.00,,,0.34,WUHU216HW,2013-12-26 03:24:00,
2013-12-25 21:25:00,30.8,25.4,30.31,NNW,338,0.0,1.4,80,0.00,,,0.34,WUHU216HW,2013-12-26 03:25:00,
2013-12-25 21:26:00,30.8,25.4,30.31,North,0,0.0,1.4,80,0.00,,,0.34,WUHU216HW,2013-12-26 03:26:00,
2013-12-25 21:28:00,30.8,25.4,30.31,West,270,0.0,1.4,80,0.00,,,0.34,WUHU216HW,2013-12-26 03:28:00,
2013-12-25 21:29:00,30.6,25.2,30.31,WNW,293,0.0,1.4,80,0.00,,,0.34,WUHU216HW,2013-12-26 03:29:00,
2013-12-25 21:30:00,30.6,25.2,30.31,NW,315,0.0,1.1,80,0.00,,,0.34,WUHU216HW,2013-12-26 03:30:00,
2013-12-25 21:31:00,30.6,25.2,30.31,West,270,0.0,1.1,80,0.00,,,0.34,WUHU216HW,2013-12-26 03:31:00,
2013-12-25 21:33:00,30.6,25.2,30.31,WNW,293,0.0,1.1,80,0.00,,,0.34,WUHU216HW,2013-12-26 03:33:00,
2013-12-25 21:34:00,30.6,25.2,30.31,WNW,293,0.0,1.1,80,0.00,,,0.34,WUHU216HW,2013-12-26 03:34:00,
2013-12-25 21:35:00,30.6,25.2,30.31,West,270,0.0,1.1,80,0.00,,,0.34,WUHU216HW,2013-12-26 03:35:00,
2013-12-25 21:36:00,30.6,25.2,30.31,WSW,248,0.0,1.1,80,0.00,,,0.34,WUHU216HW,2013-12-26 03:36:00,
2013-12-25 21:38:00,30.6,25.2,30.31,East,90,0.0,1.1,80,0.00,,,0.34,WUHU216HW,2013-12-26 03:38:00,
2013-12-25 21:39:00,30.6,25.2,30.31,WNW,293,0.0,0.0,80,0.00,,,0.34,WUHU216HW,2013-12-26 03:39:00,
2013-12-25 21:41:00,30.6,25.5,30.32,WNW,293,0.0,0.0,81,0.00,,,0.34,WUHU216HW,2013-12-26 03:41:00,
2013-12-25 21:43:00,30.6,25.2,30.32,WSW,248,1.1,1.4,80,0.00,,,0.34,WUHU216HW,2013-12-26 03:43:00,
2013-12-25 21:44:00,30.6,25.2,30.32,SSW,203,0.0,1.4,80,0.00,,,0.34,WUHU216HW,2013-12-26 03:44:00,
2013-12-25 21:45:00,30.6,25.5,30.31,West,270,0.0,1.4,81,0.00,,,0.34,WUHU216HW,2013-12-26 03:45:00,
2013-12-25 21:46:00,30.8,25.7,30.32,WNW,293,1.1,1.4,81,0.00,,,0.34,WUHU216HW,2013-12-26 03:46:00,
2013-12-25 21:50:00,31.0,25.8,30.31,NW,315,0.0,4.5,81,0.00,,,0.34,WUHU216HW,2013-12-26 03:50:00,
2013-12-25 21:51:00,31.0,25.8,30.31,WNW,293,0.0,4.5,81,0.00,,,0.34,WUHU216HW,2013-12-26 03:51:00,
2013-12-25 21:52:00,31.0,25.8,30.31,WNW,293,0.7,4.5,81,0.00,,,0.34,WUHU216HW,2013-12-26 03:52:00,
2013-12-25 21:55:00,31.0,25.8,30.31,WNW,293,1.6,4.5,81,0.00,,,0.34,WUHU216HW,2013-12-26 03:55:00,
2013-12-25 21:56:00,31.0,25.8,30.31,WSW,248,0.0,4.5,81,0.00,,,0.34,WUHU216HW,2013-12-26 03:56:00,
2013-12-25 21:57:00,31.0,25.6,30.31,West,270,0.4,4.5,80,0.00,,,0.34,WUHU216HW,2013-12-26 03:57:00,
2013-12-25 22:00:00,31.0,25.6,30.31,SW,225,0.4,2.0,80,0.00,,,0.34,WUHU216HW,2013-12-26 04:00:00,
2013-12-25 22:01:00,31.0,25.6,30.31,NNW,338,0.0,2.5,80,0.00,,,0.34,WUHU216HW,2013-12-26 04:01:00,
2013-12-25 22:03:00,30.8,25.4,30.31,WSW,248,0.0,2.5,80,0.00,,,0.34,WUHU216HW,2013-12-26 04:03:00,
2013-12-25 22:05:00,30.8,25.4,30.31,West,270,0.0,2.5,80,0.00,,,0.34,WUHU216HW,2013-12-26 04:05:00,
2013-12-25 22:07:00,30.8,25.4,30.31,WSW,248,0.0,2.5,80,0.00,,,0.34,WUHU216HW,2013-12-26 04:07:00,
2013-12-25 22:08:00,30.8,25.4,30.31,NW,315,0.0,2.5,80,0.00,,,0.34,WUHU216HW,2013-12-26 04:08:00,
2013-12-25 22:10:00,30.8,25.4,30.31,WNW,293,0.0,2.5,80,0.00,,,0.34,WUHU216HW,2013-12-26 04:10:00,
2013-12-25 22:11:00,30.6,25.5,30.31,SSW,203,0.0,1.6,81,0.00,,,0.34,WUHU216HW,2013-12-26 04:11:00,
2013-12-25 22:12:00,30.6,25.2,30.31,West,270,0.0,1.6,80,0.00,,,0.34,WUHU216HW,2013-12-26 04:12:00,
2013-12-25 22:13:00,30.6,25.5,30.31,NW,315,0.0,0.0,81,0.00,,,0.34,WUHU216HW,2013-12-26 04:13:00,
2013-12-25 22:15:00,30.6,25.5,30.31,WNW,293,0.0,1.4,81,0.00,,,0.34,WUHU216HW,2013-12-26 04:15:00,
2013-12-25 22:16:00,30.6,25.5,30.31,SSW,203,0.0,1.4,81,0.00,,,0.34,WUHU216HW,2013-12-26 04:16:00,
2013-12-25 22:17:00,30.6,25.5,30.31,NW,315,0.0,1.4,81,0.00,,,0.34,WUHU216HW,2013-12-26 04:17:00,
2013-12-25 22:18:00,30.6,25.5,30.31,NW,315,0.0,1.4,81,0.00,,,0.34,WUHU216HW,2013-12-26 04:18:00,
2013-12-25 22:20:00,30.6,25.5,30.31,WSW,248,0.0,1.4,81,0.00,,,0.34,WUHU216HW,2013-12-26 04:20:00,
2013-12-25 22:22:00,30.6,25.5,30.31,SW,225,0.0,1.4,81,0.00,,,0.34,WUHU216HW,2013-12-26 04:22:00,
2013-12-25 22:23:00,30.6,25.5,30.31,SW,225,0.0,1.4,81,0.00,,,0.34,WUHU216HW,2013-12-26 04:23:00,
2013-12-25 22:24:00,30.6,25.5,30.31,SW,225,0.0,1.4,81,0.00,,,0.34,WUHU216HW,2013-12-26 04:24:00,
2013-12-25 22:25:00,30.6,25.5,30.31,WNW,293,0.0,0.0,81,0.00,,,0.34,WUHU216HW,2013-12-26 04:25:00,
2013-12-25 22:27:00,30.4,25.3,30.31,SSW,203,0.0,0.0,81,0.00,,,0.34,WUHU216HW,2013-12-26 04:27:00,
2013-12-25 22:28:00,30.4,25.3,30.31,WNW,293,0.0,0.0,81,0.00,,,0.34,WUHU216HW,2013-12-26 04:28:00,
2013-12-25 22:29:00,30.4,25.3,30.31,West,270,0.0,0.0,81,0.00,,,0.34,WUHU216HW,2013-12-26 04:29:00,
2013-12-25 22:31:00,30.2,25.1,30.31,SW,225,0.0,0.0,81,0.00,,,0.34,WUHU216HW,2013-12-26 04:31:00,
2013-12-25 22:32:00,30.2,25.1,30.31,West,270,0.0,0.0,81,0.00,,,0.34,WUHU216HW,2013-12-26 04:32:00,
2013-12-25 22:33:00,30.2,25.1,30.31,NNW,338,0.0,0.0,81,0.00,,,0.34,WUHU216HW,2013-12-26 04:33:00,
2013-12-25 22:36:00,30.1,24.9,30.31,WNW,293,0.0,0.0,81,0.00,,,0.34,WUHU216HW,2013-12-26 04:36:00,
2013-12-25 22:37:00,30.1,24.9,30.31,WSW,248,0.0,0.0,81,0.00,,,0.34,WUHU216HW,2013-12-26 04:37:00,
2013-12-25 22:38:00,30.1,24.9,30.31,WSW,248,0.0,0.0,81,0.00,,,0.34,WUHU216HW,2013-12-26 04:38:00,
2013-12-25 22:39:00,30.1,24.9,30.31,West,270,0.0,0.0,81,0.00,,,0.34,WUHU216HW,2013-12-26 04:39:00,
2013-12-25 22:42:00,29.9,24.8,30.31,WSW,248,0.0,0.0,81,0.00,,,0.34,WUHU216HW,2013-12-26 04:42:00,
2013-12-25 22:43:00,29.9,24.8,30.31,West,270,0.0,0.0,81,0.00,,,0.34,WUHU216HW,2013-12-26 04:43:00,
2013-12-25 22:44:00,29.9,24.8,30.31,WSW,248,0.0,0.0,81,0.00,,,0.34,WUHU216HW,2013-12-26 04:44:00,
2013-12-25 22:47:00,29.5,24.4,30.31,West,270,0.0,0.0,81,0.00,,,0.34,WUHU216HW,2013-12-26 04:47:00,
2013-12-25 22:48:00,29.5,24.4,30.31,NW,315,0.0,0.0,81,0.00,,,0.34,WUHU216HW,2013-12-26 04:48:00,
2013-12-25 22:49:00,29.5,24.4,30.31,SW,225,0.0,0.0,81,0.00,,,0.34,WUHU216HW,2013-12-26 04:49:00,
2013-12-25 22:52:00,29.3,24.2,30.31,NW,315,0.0,0.0,81,0.00,,,0.34,WUHU216HW,2013-12-26 04:52:00,
2013-12-25 22:53:00,29.3,24.2,30.31,NW,315,0.0,0.0,81,0.00,,,0.34,WUHU216HW,2013-12-26 04:53:00,
2013-12-25 22:54:00,29.3,24.2,30.31,NW,315,0.0,0.0,81,0.00,,,0.34,WUHU216HW,2013-12-26 04:54:00,
2013-12-25 22:57:00,29.3,24.2,30.31,WNW,293,0.0,0.0,81,0.00,,,0.34,WUHU216HW,2013-12-26 04:57:00,
2013-12-25 22:58:00,29.2,24.0,30.31,WNW,293,0.0,0.0,81,0.00,,,0.34,WUHU216HW,2013-12-26 04:58:00,
2013-12-25 22:59:00,29.3,24.2,30.31,WNW,293,0.0,0.0,81,0.00,,,0.34,WUHU216HW,2013-12-26 04:59:00,
2013-12-25 23:00:00,29.3,24.2,30.31,West,270,0.0,0.0,81,0.00,,,0.34,WUHU216HW,2013-12-26 05:00:00,
2013-12-25 23:01:00,29.2,24.0,30.31,NW,315,0.0,0.0,81,0.00,,,0.34,WUHU216HW,2013-12-26 05:01:00,
2013-12-25 23:06:00,29.2,24.0,30.31,SW,225,0.0,0.0,81,0.00,,,0.34,WUHU216HW,2013-12-26 05:06:00,
2013-12-25 23:07:00,29.2,24.0,30.31,WNW,293,0.0,0.0,81,0.00,,,0.34,WUHU216HW,2013-12-26 05:07:00,
2013-12-25 23:08:00,29.2,24.0,30.31,WNW,293,0.0,0.0,81,0.00,,,0.34,WUHU216HW,2013-12-26 05:08:00,
2013-12-25 23:11:00,29.2,24.0,30.31,West,270,0.0,0.0,81,0.00,,,0.34,WUHU216HW,2013-12-26 05:11:00,
2013-12-25 23:12:00,29.0,23.9,30.31,WNW,293,0.0,0.0,81,0.00,,,0.34,WUHU216HW,2013-12-26 05:12:00,
2013-12-25 23:13:00,29.0,23.9,30.31,West,270,0.0,0.0,81,0.00,,,0.34,WUHU216HW,2013-12-26 05:13:00,
2013-12-25 23:14:00,29.0,23.9,30.31,West,270,0.0,0.0,81,0.00,,,0.34,WUHU216HW,2013-12-26 05:14:00,
2013-12-25 23:16:00,28.8,23.9,30.31,West,270,0.0,0.0,82,0.00,,,0.34,WUHU216HW,2013-12-26 05:16:00,
2013-12-25 23:17:00,28.6,23.8,30.31,West,270,0.0,0.0,82,0.00,,,0.34,WUHU216HW,2013-12-26 05:17:00,
2013-12-25 23:18:00,28.6,23.8,30.31,West,270,0.0,0.0,82,0.00,,,0.34,WUHU216HW,2013-12-26 05:18:00,
2013-12-25 23:19:00,28.4,23.6,30.31,West,270,0.0,0.0,82,0.00,,,0.34,WUHU216HW,2013-12-26 05:19:00,
2013-12-25 23:21:00,28.4,23.6,30.31,WNW,293,0.0,0.0,82,0.00,,,0.34,WUHU216HW,2013-12-26 05:21:00,
2013-12-25 23:22:00,28.3,23.4,30.31,West,270,0.0,0.0,82,0.00,,,0.34,WUHU216HW,2013-12-26 05:22:00,
2013-12-25 23:23:00,28.3,23.4,30.31,West,270,0.0,0.0,82,0.00,,,0.34,WUHU216HW,2013-12-26 05:23:00,
2013-12-25 23:25:00,28.3,23.4,30.31,West,270,0.0,0.0,82,0.00,,,0.34,WUHU216HW,2013-12-26 05:25:00,
2013-12-25 23:26:00,28.3,23.4,30.31,West,270,0.0,0.0,82,0.00,,,0.34,WUHU216HW,2013-12-26 05:26:00,
2013-12-25 23:27:00,28.3,23.4,30.31,West,270,0.0,0.0,82,0.00,,,0.34,WUHU216HW,2013-12-26 05:27:00,
2013-12-25 23:28:00,28.1,23.2,30.31,West,270,0.0,0.0,82,0.00,,,0.34,WUHU216HW,2013-12-26 05:28:00,
2013-12-25 23:30:00,28.1,23.2,30.31,West,270,0.0,0.0,82,0.00,,,0.34,WUHU216HW,2013-12-26 05:30:00,
2013-12-25 23:31:00,27.9,23.0,30.31,West,270,0.0,0.0,82,0.00,,,0.34,WUHU216HW,2013-12-26 05:31:00,
2013-12-25 23:32:00,27.9,23.0,30.31,West,270,0.0,0.0,82,0.00,,,0.34,WUHU216HW,2013-12-26 05:32:00,
2013-12-25 23:33:00,27.9,23.0,30.31,West,270,0.0,0.0,82,0.00,,,0.34,WUHU216HW,2013-12-26 05:33:00,
2013-12-25 23:34:00,27.7,22.9,30.31,West,270,0.0,0.0,82,0.00,,,0.34,WUHU216HW,2013-12-26 05:34:00,
2013-12-25 23:35:00,27.7,22.9,30.31,West,270,0.0,0.0,82,0.00,,,0.34,WUHU216HW,2013-12-26 05:35:00,
2013-12-25 23:36:00,27.7,22.9,30.31,West,270,0.0,0.0,82,0.00,,,0.34,WUHU216HW,2013-12-26 05:36:00,
2013-12-25 23:37:00,27.7,22.9,30.31,West,270,0.0,0.0,82,0.00,,,0.34,WUHU216HW,2013-12-26 05:37:00,
2013-12-25 23:38:00,27.5,22.7,30.31,West,270,0.0,0.0,82,0.00,,,0.34,WUHU216HW,2013-12-26 05:38:00,
2013-12-25 23:39:00,27.5,22.7,30.31,West,270,0.0,0.0,82,0.00,,,0.34,WUHU216HW,2013-12-26 05:39:00,
2013-12-25 23:40:00,27.4,22.5,30.31,West,270,0.0,0.0,82,0.00,,,0.34,WUHU216HW,2013-12-26 05:40:00,
2013-12-25 23:41:00,27.4,22.9,30.31,West,270,0.0,0.0,83,0.00,,,0.34,WUHU216HW,2013-12-26 05:41:00,
2013-12-25 23:42:00,27.4,22.9,30.31,West,270,0.0,0.0,83,0.00,,,0.34,WUHU216HW,2013-12-26 05:42:00,
2013-12-25 23:43:00,27.4,22.9,30.31,West,270,0.0,0.0,83,0.00,,,0.34,WUHU216HW,2013-12-26 05:43:00,
2013-12-25 23:44:00,27.4,22.9,30.31,West,270,0.0,0.0,83,0.00,,,0.34,WUHU216HW,2013-12-26 05:44:00,
2013-12-25 23:45:00,27.2,22.3,30.31,West,270,0.0,0.0,82,0.00,,,0.34,WUHU216HW,2013-12-26 05:45:00,
2013-12-25 23:46:00,27.2,22.3,30.31,West,270,0.0,0.0,82,0.00,,,0.34,WUHU216HW,2013-12-26 05:46:00,
2013-12-25 23:47:00,27.2,22.3,30.31,West,270,0.0,0.0,82,0.00,,,0.34,WUHU216HW,2013-12-26 05:47:00,
2013-12-25 23:48:00,27.2,22.3,30.31,West,270,0.0,0.0,82,0.00,,,0.34,WUHU216HW,2013-12-26 05:48:00,
2013-12-25 23:49:00,27.0,22.1,30.31,West,270,0.0,0.0,82,0.00,,,0.34,WUHU216HW,2013-12-26 05:49:00,
2013-12-25 23:50:00,27.0,22.1,30.31,West,270,0.0,0.0,82,0.00,,,0.34,WUHU216HW,2013-12-26 05:50:00,
2013-12-25 23:52:00,27.0,22.1,30.31,West,270,0.0,0.0,82,0.00,,,0.34,WUHU216HW,2013-12-26 05:52:00,
2013-12-25 23:53:00,27.0,22.5,30.31,West,270,0.0,0.0,83,0.00,,,0.34,WUHU216HW,2013-12-26 05:53:00,
2013-12-25 23:55:00,27.0,22.5,30.31,West,270,0.0,0.0,83,0.00,,,0.34,WUHU216HW,2013-12-26 05:55:00,
2013-12-25 23:56:00,27.0,22.5,30.31,West,270,0.0,0.0,83,0.00,,,0.34,WUHU216HW,2013-12-26 05:56:00,
2013-12-25 23:57:00,26.8,22.3,30.31,West,270,0.0,0.0,83,0.00,,,0.34,WUHU216HW,2013-12-26 05:57:00,
2013-12-25 23:58:00,26.8,22.3,30.31,West,270,0.0,0.0,83,0.00,,,0.34,WUHU216HW,2013-12-26 05:58:00,